Time,TemperatureF,DewpointF,PressureIn,WindDirection,WindDirectionDegrees,WindSpeedMPH,WindSpeedGustMPH,Humidity,HourlyPrecipIn,Conditions,Clouds,dailyrainin,SolarRadiationWatts/m^2,SoftwareType,DateUTC
2013-08-13 00:00:00,70.0,68.8,29.87,WSW,241,0.0,0.0,96,0.00,,CLR,0.00,0.00,VWS V14.01,2013-08-13 05:00:00,
2013-08-13 00:05:00,69.9,68.7,29.87,WSW,241,0.0,0.0,96,0.00,,CLR,0.00,0.00,VWS V14.01,2013-08-13 05:05:00,
2013-08-13 00:10:00,69.8,68.6,29.87,WSW,241,0.0,0.0,96,0.00,,CLR,0.00,0.00,VWS V14.01,2013-08-13 05:10:00,
2013-08-13 00:15:00,69.7,68.5,29.87,WSW,241,0.0,0.0,96,0.00,,CLR,0.00,0.00,VWS V14.01,2013-08-13 05:15:00,
2013-08-13 00:20:00,69.5,68.3,29.87,WSW,241,0.0,0.0,96,0.00,,CLR,0.00,0.00,VWS V14.01,2013-08-13 05:20:00,
2013-08-13 00:25:00,69.4,67.9,29.87,WSW,241,0.0,0.0,95,0.00,,CLR,0.00,0.00,VWS V14.01,2013-08-13 05:25:00,
2013-08-13 00:30:00,69.3,67.8,29.87,WSW,241,0.0,0.0,95,0.00,,CLR,0.00,0.00,VWS V14.01,2013-08-13 05:30:00,
2013-08-13 00:35:00,69.2,68.0,29.87,WSW,241,0.0,0.0,96,0.00,,CLR,0.00,0.00,VWS V14.01,2013-08-13 05:35:00,
2013-08-13 00:40:00,69.2,68.0,29.87,WSW,241,0.0,0.0,96,0.00,,CLR,0.00,0.00,VWS V14.01,2013-08-13 05:40:00,
2013-08-13 00:41:00,69.2,68.0,29.87,WSW,241,0.0,0.0,96,0.00,,CLR,0.00,0.00,VWS V14.01,2013-08-13 05:41:00,
2013-08-13 00:45:00,69.1,67.9,29.87,WSW,241,0.0,0.0,96,0.00,,CLR,0.00,0.00,VWS V14.01,2013-08-13 05:45:00,
2013-08-13 00:46:00,69.1,67.9,29.87,WSW,241,0.0,0.0,96,0.00,,CLR,0.00,0.00,VWS V14.01,2013-08-13 05:46:00,
2013-08-13 00:50:00,69.0,67.8,29.87,WSW,241,0.0,0.0,96,0.00,,CLR,0.00,0.00,VWS V14.01,2013-08-13 05:50:00,
2013-08-13 00:51:00,69.0,67.8,29.87,WSW,241,0.0,0.0,96,0.00,,CLR,0.00,0.00,VWS V14.01,2013-08-13 05:51:00,
2013-08-13 00:55:00,69.0,67.8,29.87,WSW,241,0.0,0.0,96,0.00,,CLR,0.00,0.00,VWS V14.01,2013-08-13 05:55:00,
2013-08-13 00:56:00,69.0,68.1,29.87,WSW,241,0.0,0.0,97,0.00,,CLR,0.00,0.00,VWS V14.01,2013-08-13 05:56:00,
2013-08-13 01:00:00,69.0,68.1,29.87,WSW,241,0.0,0.0,97,0.00,,CLR,0.00,0.00,VWS V14.01,2013-08-13 06:00:00,
2013-08-13 01:01:00,69.0,68.1,29.87,WSW,241,0.0,0.0,97,0.00,,FEW030,0.00,0.00,VWS V14.01,2013-08-13 06:01:00,
2013-08-13 01:05:00,68.9,67.7,29.87,WSW,241,0.0,0.0,96,0.00,,CLR,0.00,0.00,VWS V14.01,2013-08-13 06:05:00,
2013-08-13 01:06:00,68.9,67.7,29.87,WSW,241,0.0,0.0,96,0.00,,FEW030,0.00,0.00,VWS V14.01,2013-08-13 06:06:00,
2013-08-13 01:10:00,68.9,67.7,29.87,WSW,241,0.0,0.0,96,0.00,,CLR,0.00,0.00,VWS V14.01,2013-08-13 06:10:00,
2013-08-13 01:11:00,68.8,67.6,29.87,WSW,241,0.0,0.0,96,0.00,,FEW030,0.00,0.00,VWS V14.01,2013-08-13 06:11:00,
2013-08-13 01:15:00,68.8,67.6,29.87,WSW,241,0.0,0.0,96,0.00,,CLR,0.00,0.00,VWS V14.01,2013-08-13 06:15:00,
2013-08-13 01:16:00,68.8,67.6,29.87,WSW,241,0.0,0.0,96,0.00,,FEW030,0.00,0.00,VWS V14.01,2013-08-13 06:16:00,
2013-08-13 01:20:00,68.7,67.5,29.87,WSW,241,0.0,0.0,96,0.00,,CLR,0.00,0.00,VWS V14.01,2013-08-13 06:20:00,
2013-08-13 01:21:00,68.7,67.5,29.87,WSW,241,0.0,0.0,96,0.00,,FEW030,0.00,0.00,VWS V14.01,2013-08-13 06:21:00,
2013-08-13 01:25:00,68.7,67.8,29.87,WSW,241,0.0,0.0,97,0.00,,CLR,0.00,0.00,VWS V14.01,2013-08-13 06:25:00,
2013-08-13 01:26:00,68.6,67.7,29.87,WSW,241,0.0,0.0,97,0.00,,FEW030,0.00,0.00,VWS V14.01,2013-08-13 06:26:00,
2013-08-13 01:30:00,68.6,67.7,29.87,WSW,241,0.0,0.0,97,0.00,,CLR,0.00,0.00,VWS V14.01,2013-08-13 06:30:00,
2013-08-13 01:31:00,68.6,67.7,29.87,WSW,241,0.0,0.0,97,0.00,,FEW030,0.00,0.00,VWS V14.01,2013-08-13 06:31:00,
2013-08-13 01:35:00,68.6,67.7,29.87,WSW,241,0.0,0.0,97,0.00,,CLR,0.00,0.00,VWS V14.01,2013-08-13 06:35:00,
2013-08-13 01:36:00,68.6,67.7,29.87,WSW,241,0.0,0.0,97,0.00,,FEW030,0.00,0.00,VWS V14.01,2013-08-13 06:36:00,
2013-08-13 01:40:00,68.5,67.6,29.87,WSW,241,0.0,0.0,97,0.00,,CLR,0.00,0.00,VWS V14.01,2013-08-13 06:40:00,
2013-08-13 01:41:00,68.5,67.6,29.87,WSW,241,0.0,0.0,97,0.00,,FEW030,0.00,0.00,VWS V14.01,2013-08-13 06:41:00,
2013-08-13 01:45:00,68.5,67.6,29.87,WSW,241,0.0,0.0,97,0.00,,CLR,0.00,0.00,VWS V14.01,2013-08-13 06:45:00,
2013-08-13 01:46:00,68.5,67.6,29.87,WSW,241,0.0,0.0,97,0.00,,FEW030,0.00,0.00,VWS V14.01,2013-08-13 06:46:00,
2013-08-13 01:50:00,68.4,67.5,29.87,WSW,241,0.0,0.0,97,0.00,,CLR,0.00,0.00,VWS V14.01,2013-08-13 06:50:00,
2013-08-13 01:51:00,68.4,67.5,29.87,WSW,241,0.0,0.0,97,0.00,,FEW030,0.00,0.00,VWS V14.01,2013-08-13 06:51:00,
2013-08-13 01:55:00,68.3,67.4,29.87,WSW,241,0.0,0.0,97,0.00,,CLR,0.00,0.00,VWS V14.01,2013-08-13 06:55:00,
2013-08-13 01:56:00,68.3,67.4,29.87,WSW,241,0.0,0.0,97,0.00,,FEW030,0.00,0.00,VWS V14.01,2013-08-13 06:56:00,
2013-08-13 02:00:00,68.3,67.4,29.86,WSW,241,0.0,0.0,97,0.00,,CLR,0.00,0.00,VWS V14.01,2013-08-13 07:00:00,
2013-08-13 02:01:00,68.3,67.4,29.86,WSW,241,0.0,0.0,97,0.00,,CLR,0.00,0.00,VWS V14.01,2013-08-13 07:01:00,
2013-08-13 02:05:00,68.4,67.5,29.86,WSW,241,0.0,0.0,97,0.00,,CLR,0.00,0.00,VWS V14.01,2013-08-13 07:05:00,
2013-08-13 02:06:00,68.4,67.5,29.86,WSW,241,0.0,0.0,97,0.00,,CLR,0.00,0.00,VWS V14.01,2013-08-13 07:06:00,
2013-08-13 02:10:00,68.4,67.5,29.86,WSW,241,0.0,0.0,97,0.00,,CLR,0.00,0.00,VWS V14.01,2013-08-13 07:10:00,
2013-08-13 02:11:00,68.4,67.5,29.86,WSW,241,0.0,0.0,97,0.00,,CLR,0.00,0.00,VWS V14.01,2013-08-13 07:11:00,
2013-08-13 02:15:00,68.3,67.4,29.87,WSW,241,0.0,0.0,97,0.00,,CLR,0.00,0.00,VWS V14.01,2013-08-13 07:15:00,
2013-08-13 02:16:00,68.3,67.4,29.87,WSW,241,0.0,0.0,97,0.00,,CLR,0.00,0.00,VWS V14.01,2013-08-13 07:16:00,
2013-08-13 02:20:00,68.3,67.4,29.87,WSW,241,0.0,0.0,97,0.00,,CLR,0.00,0.00,VWS V14.01,2013-08-13 07:20:00,
2013-08-13 02:22:00,68.3,67.4,29.87,WSW,241,0.0,0.0,97,0.00,,CLR,0.00,0.00,VWS V14.01,2013-08-13 07:22:00,
2013-08-13 02:25:00,68.3,67.4,29.87,WSW,241,0.0,0.0,97,0.00,,CLR,0.00,0.00,VWS V14.01,2013-08-13 07:25:00,
2013-08-13 02:27:00,68.2,67.3,29.87,WSW,241,0.0,0.0,97,0.00,,CLR,0.00,0.00,VWS V14.01,2013-08-13 07:27:00,
2013-08-13 02:30:00,68.2,67.3,29.87,WSW,241,0.0,0.0,97,0.00,,CLR,0.00,0.00,VWS V14.01,2013-08-13 07:30:00,
2013-08-13 02:32:00,68.2,67.3,29.87,WSW,241,0.0,0.0,97,0.00,,CLR,0.00,0.00,VWS V14.01,2013-08-13 07:32:00,
2013-08-13 02:35:00,68.3,67.7,29.87,WSW,241,0.0,0.0,98,0.00,,CLR,0.00,0.00,VWS V14.01,2013-08-13 07:35:00,
2013-08-13 02:37:00,68.3,67.7,29.87,WSW,241,0.0,0.0,98,0.00,,CLR,0.00,0.00,VWS V14.01,2013-08-13 07:37:00,
2013-08-13 02:40:00,68.3,67.7,29.87,WSW,241,0.0,0.0,98,0.00,,CLR,0.00,0.00,VWS V14.01,2013-08-13 07:40:00,
2013-08-13 02:42:00,68.3,67.7,29.87,WSW,241,0.0,0.0,98,0.00,,CLR,0.00,0.00,VWS V14.01,2013-08-13 07:42:00,
2013-08-13 02:45:00,68.3,67.7,29.87,WSW,241,0.0,0.0,98,0.00,,CLR,0.00,0.00,VWS V14.01,2013-08-13 07:45:00,
2013-08-13 02:47:00,68.3,67.7,29.87,WSW,241,0.0,0.0,98,0.00,,CLR,0.00,0.00,VWS V14.01,2013-08-13 07:47:00,
2013-08-13 02:50:00,68.3,67.7,29.87,WSW,241,0.0,0.0,98,0.00,,CLR,0.00,0.00,VWS V14.01,2013-08-13 07:50:00,
2013-08-13 02:52:00,68.3,67.7,29.87,WSW,241,0.0,0.0,98,0.00,,CLR,0.00,0.00,VWS V14.01,2013-08-13 07:52:00,
2013-08-13 02:55:00,68.3,67.7,29.87,WSW,241,0.0,0.0,98,0.00,,CLR,0.00,0.00,VWS V14.01,2013-08-13 07:55:00,
2013-08-13 02:57:00,68.3,67.7,29.87,WSW,241,0.0,0.0,98,0.00,,CLR,0.00,0.00,VWS V14.01,2013-08-13 07:57:00,
2013-08-13 03:00:00,68.3,67.7,29.87,WSW,241,0.0,0.0,98,0.00,,CLR,0.00,0.00,VWS V14.01,2013-08-13 08:00:00,
2013-08-13 03:02:00,68.2,67.6,29.87,WSW,241,0.0,0.0,98,0.00,,CLR,0.00,0.00,VWS V14.01,2013-08-13 08:02:00,
2013-08-13 03:05:00,68.2,67.6,29.87,WSW,241,0.0,0.0,98,0.00,,CLR,0.00,0.00,VWS V14.01,2013-08-13 08:05:00,
2013-08-13 03:07:00,68.2,67.6,29.87,WSW,241,0.0,0.0,98,0.00,,CLR,0.00,0.00,VWS V14.01,2013-08-13 08:07:00,
2013-08-13 03:10:00,68.1,67.5,29.87,WSW,241,0.0,0.0,98,0.00,,CLR,0.00,0.00,VWS V14.01,2013-08-13 08:10:00,
2013-08-13 03:12:00,68.1,67.5,29.87,WSW,241,0.0,0.0,98,0.00,,CLR,0.00,0.00,VWS V14.01,2013-08-13 08:12:00,
2013-08-13 03:15:00,68.1,67.5,29.87,WSW,241,0.0,0.0,98,0.00,,CLR,0.00,0.00,VWS V14.01,2013-08-13 08:15:00,
2013-08-13 03:17:00,68.0,67.4,29.87,WSW,241,0.0,0.0,98,0.00,,CLR,0.00,0.00,VWS V14.01,2013-08-13 08:17:00,
2013-08-13 03:20:00,68.0,67.4,29.87,WSW,241,0.0,0.0,98,0.00,,CLR,0.00,0.00,VWS V14.01,2013-08-13 08:20:00,
2013-08-13 03:22:00,68.0,67.1,29.87,WSW,241,0.0,0.0,97,0.00,,CLR,0.00,0.00,VWS V14.01,2013-08-13 08:22:00,
2013-08-13 03:25:00,67.9,67.0,29.87,WSW,241,0.0,0.0,97,0.00,,CLR,0.00,0.00,VWS V14.01,2013-08-13 08:25:00,
2013-08-13 03:27:00,67.9,67.0,29.87,WSW,241,0.0,0.0,97,0.00,,CLR,0.00,0.00,VWS V14.01,2013-08-13 08:27:00,
2013-08-13 03:30:00,67.8,66.9,29.87,WSW,241,0.0,0.0,97,0.00,,CLR,0.00,0.00,VWS V14.01,2013-08-13 08:30:00,
2013-08-13 03:32:00,67.7,66.8,29.87,WSW,241,0.0,0.0,97,0.00,,CLR,0.00,0.00,VWS V14.01,2013-08-13 08:32:00,
2013-08-13 03:35:00,67.7,66.8,29.87,WSW,241,0.0,0.0,97,0.00,,CLR,0.00,0.00,VWS V14.01,2013-08-13 08:35:00,
2013-08-13 03:37:00,67.6,66.7,29.87,WSW,241,0.0,0.0,97,0.00,,CLR,0.00,0.00,VWS V14.01,2013-08-13 08:37:00,
2013-08-13 03:40:00,67.6,66.7,29.87,WSW,241,0.0,0.0,97,0.00,,CLR,0.00,0.00,VWS V14.01,2013-08-13 08:40:00,
2013-08-13 03:42:00,67.5,66.6,29.87,WSW,241,0.0,0.0,97,0.00,,CLR,0.00,0.00,VWS V14.01,2013-08-13 08:42:00,
2013-08-13 03:45:00,67.5,66.6,29.87,WSW,241,0.0,0.0,97,0.00,,CLR,0.00,0.00,VWS V14.01,2013-08-13 08:45:00,
2013-08-13 03:47:00,67.5,66.6,29.87,WSW,241,0.0,0.0,97,0.00,,CLR,0.00,0.00,VWS V14.01,2013-08-13 08:47:00,
2013-08-13 03:50:00,67.4,66.5,29.87,WSW,241,0.0,0.0,97,0.00,,CLR,0.00,0.00,VWS V14.01,2013-08-13 08:50:00,
2013-08-13 03:52:00,67.4,66.5,29.87,WSW,241,0.0,0.0,97,0.00,,CLR,0.00,0.00,VWS V14.01,2013-08-13 08:52:00,
2013-08-13 03:55:00,67.4,66.8,29.87,WSW,241,0.0,0.0,98,0.00,,CLR,0.00,0.00,VWS V14.01,2013-08-13 08:55:00,
2013-08-13 03:57:00,67.4,66.8,29.87,WSW,241,0.0,0.0,98,0.00,,CLR,0.00,0.00,VWS V14.01,2013-08-13 08:57:00,
2013-08-13 04:00:00,67.4,66.8,29.87,WSW,241,0.0,0.0,98,0.00,,CLR,0.00,0.00,VWS V14.01,2013-08-13 09:00:00,
2013-08-13 04:02:00,67.4,66.8,29.87,WSW,241,0.0,0.0,98,0.00,,CLR,0.00,0.00,VWS V14.01,2013-08-13 09:02:00,
2013-08-13 04:05:00,67.5,66.9,29.87,WSW,241,0.0,0.0,98,0.00,,CLR,0.00,0.00,VWS V14.01,2013-08-13 09:05:00,
2013-08-13 04:07:00,67.6,67.0,29.87,WSW,241,0.0,0.0,98,0.00,,CLR,0.00,0.00,VWS V14.01,2013-08-13 09:07:00,
2013-08-13 04:10:00,67.6,67.0,29.87,WSW,241,0.0,0.0,98,0.00,,CLR,0.00,0.00,VWS V14.01,2013-08-13 09:10:00,
2013-08-13 04:13:00,67.6,67.0,29.87,WSW,241,0.0,0.0,98,0.00,,CLR,0.00,0.00,VWS V14.01,2013-08-13 09:13:00,
2013-08-13 04:15:00,67.7,67.1,29.87,WSW,241,0.0,0.0,98,0.00,,CLR,0.00,0.00,VWS V14.01,2013-08-13 09:15:00,
2013-08-13 04:18:00,67.7,67.1,29.87,WSW,241,0.0,0.0,98,0.00,,CLR,0.00,0.00,VWS V14.01,2013-08-13 09:18:00,
2013-08-13 04:20:00,67.8,67.2,29.87,WSW,241,0.0,0.0,98,0.00,,CLR,0.00,0.00,VWS V14.01,2013-08-13 09:20:00,
2013-08-13 04:23:00,67.8,67.5,29.87,WSW,241,0.0,0.0,99,0.00,,CLR,0.00,0.00,VWS V14.01,2013-08-13 09:23:00,
2013-08-13 04:25:00,67.9,67.6,29.87,WSW,241,0.0,0.0,99,0.00,,CLR,0.00,0.00,VWS V14.01,2013-08-13 09:25:00,
2013-08-13 04:28:00,67.9,67.6,29.87,WSW,241,0.0,0.0,99,0.00,,CLR,0.00,0.00,VWS V14.01,2013-08-13 09:28:00,
2013-08-13 04:30:00,67.9,67.6,29.87,WSW,241,0.0,0.0,99,0.00,,CLR,0.00,0.00,VWS V14.01,2013-08-13 09:30:00,
2013-08-13 04:33:00,67.9,67.3,29.87,WSW,241,0.0,0.0,98,0.00,,CLR,0.00,0.00,VWS V14.01,2013-08-13 09:33:00,
2013-08-13 04:35:00,67.9,67.3,29.87,WSW,241,0.0,0.0,98,0.00,,CLR,0.00,0.00,VWS V14.01,2013-08-13 09:35:00,
2013-08-13 04:38:00,67.9,67.3,29.87,WSW,241,0.0,0.0,98,0.00,,CLR,0.00,0.00,VWS V14.01,2013-08-13 09:38:00,
2013-08-13 04:40:00,67.9,67.3,29.87,WSW,241,0.0,0.0,98,0.00,,CLR,0.00,0.00,VWS V14.01,2013-08-13 09:40:00,
2013-08-13 04:43:00,67.8,67.2,29.87,WSW,241,0.0,0.0,98,0.00,,CLR,0.00,0.00,VWS V14.01,2013-08-13 09:43:00,
2013-08-13 04:45:00,67.8,67.2,29.87,WSW,241,0.0,0.0,98,0.00,,CLR,0.00,0.00,VWS V14.01,2013-08-13 09:45:00,
2013-08-13 04:48:00,67.8,67.2,29.87,WSW,241,0.0,0.0,98,0.00,,CLR,0.00,0.00,VWS V14.01,2013-08-13 09:48:00,
2013-08-13 04:50:00,67.8,67.2,29.87,WSW,241,0.0,0.0,98,0.00,,CLR,0.00,0.00,VWS V14.01,2013-08-13 09:50:00,
2013-08-13 04:53:00,67.8,67.2,29.87,WSW,241,0.0,0.0,98,0.00,,CLR,0.00,0.00,VWS V14.01,2013-08-13 09:53:00,
2013-08-13 04:55:00,67.8,67.2,29.87,WSW,241,0.0,0.0,98,0.00,,CLR,0.00,0.00,VWS V14.01,2013-08-13 09:55:00,
2013-08-13 04:58:00,67.7,67.1,29.87,WSW,241,0.0,0.0,98,0.00,,CLR,0.00,0.00,VWS V14.01,2013-08-13 09:58:00,
2013-08-13 05:00:00,67.7,67.1,29.86,WSW,241,0.0,0.0,98,0.00,,CLR,0.00,0.00,VWS V14.01,2013-08-13 10:00:00,
2013-08-13 05:03:00,67.7,67.1,29.86,WSW,241,0.0,0.0,98,0.00,,CLR,0.00,0.00,VWS V14.01,2013-08-13 10:03:00,
2013-08-13 05:05:00,67.7,67.1,29.86,WSW,241,0.0,0.0,98,0.00,,CLR,0.00,0.00,VWS V14.01,2013-08-13 10:05:00,
2013-08-13 05:08:00,67.7,67.1,29.86,WSW,241,0.0,0.0,98,0.00,,CLR,0.00,0.00,VWS V14.01,2013-08-13 10:08:00,
2013-08-13 05:10:00,67.7,67.1,29.86,WSW,241,0.0,0.0,98,0.00,,CLR,0.00,0.00,VWS V14.01,2013-08-13 10:10:00,
2013-08-13 05:13:00,67.6,67.0,29.86,WSW,241,0.0,0.0,98,0.00,,CLR,0.00,0.00,VWS V14.01,2013-08-13 10:13:00,
2013-08-13 05:15:00,67.6,67.0,29.86,WSW,241,0.0,0.0,98,0.00,,CLR,0.00,0.00,VWS V14.01,2013-08-13 10:15:00,
2013-08-13 05:18:00,67.6,67.0,29.86,WSW,241,0.0,0.0,98,0.00,,CLR,0.00,0.00,VWS V14.01,2013-08-13 10:18:00,
2013-08-13 05:20:00,67.6,67.0,29.86,WSW,241,0.0,0.0,98,0.00,,CLR,0.00,0.00,VWS V14.01,2013-08-13 10:20:00,
2013-08-13 05:23:00,67.5,66.9,29.86,WSW,241,0.0,0.0,98,0.00,,CLR,0.00,0.00,VWS V14.01,2013-08-13 10:23:00,
2013-08-13 05:25:00,67.5,66.9,29.86,WSW,241,0.0,0.0,98,0.00,,CLR,0.00,0.00,VWS V14.01,2013-08-13 10:25:00,
2013-08-13 05:28:00,67.5,66.9,29.86,WSW,241,0.0,0.0,98,0.00,,CLR,0.00,0.00,VWS V14.01,2013-08-13 10:28:00,
2013-08-13 05:30:00,67.6,67.3,29.86,WSW,241,0.0,0.0,99,0.00,,CLR,0.00,0.00,VWS V14.01,2013-08-13 10:30:00,
2013-08-13 05:33:00,67.6,67.3,29.86,WSW,241,0.0,0.0,99,0.00,,CLR,0.00,0.00,VWS V14.01,2013-08-13 10:33:00,
2013-08-13 05:35:00,67.6,67.3,29.86,WSW,241,0.0,0.0,99,0.00,,CLR,0.00,0.00,VWS V14.01,2013-08-13 10:35:00,
2013-08-13 05:38:00,67.6,67.3,29.86,WSW,241,0.0,0.0,99,0.00,,CLR,0.00,0.00,VWS V14.01,2013-08-13 10:38:00,
2013-08-13 05:40:00,67.6,67.0,29.86,WSW,241,0.0,0.0,98,0.00,,CLR,0.00,0.00,VWS V14.01,2013-08-13 10:40:00,
2013-08-13 05:43:00,67.6,67.0,29.86,WSW,241,0.0,0.0,98,0.00,,CLR,0.00,0.00,VWS V14.01,2013-08-13 10:43:00,
2013-08-13 05:45:00,67.6,67.0,29.86,WSW,241,0.0,0.0,98,0.00,,CLR,0.00,0.00,VWS V14.01,2013-08-13 10:45:00,
2013-08-13 05:48:00,67.7,67.1,29.86,WSW,241,0.0,0.0,98,0.00,,CLR,0.00,0.00,VWS V14.01,2013-08-13 10:48:00,
2013-08-13 05:50:00,67.6,67.3,29.86,WSW,241,0.0,0.0,99,0.00,,CLR,0.00,0.00,VWS V14.01,2013-08-13 10:50:00,
2013-08-13 05:53:00,67.7,67.4,29.86,WSW,241,0.0,0.0,99,0.00,,CLR,0.00,0.00,VWS V14.01,2013-08-13 10:53:00,
2013-08-13 05:55:00,67.7,67.4,29.86,WSW,241,0.0,0.0,99,0.00,,CLR,0.00,0.00,VWS V14.01,2013-08-13 10:55:00,
2013-08-13 05:59:00,67.8,67.5,29.86,WSW,241,0.0,0.0,99,0.00,,CLR,0.00,0.00,VWS V14.01,2013-08-13 10:59:00,
2013-08-13 06:00:00,67.8,67.5,29.87,WSW,241,0.0,0.0,99,0.00,,CLR,0.00,0.00,VWS V14.01,2013-08-13 11:00:00,
2013-08-13 06:04:00,67.8,67.5,29.87,WSW,241,0.0,0.0,99,0.00,,CLR,0.00,0.00,VWS V14.01,2013-08-13 11:04:00,
2013-08-13 06:05:00,67.8,67.5,29.87,WSW,241,0.0,0.0,99,0.00,,CLR,0.00,0.00,VWS V14.01,2013-08-13 11:05:00,
2013-08-13 06:09:00,67.8,67.5,29.87,WSW,241,0.0,1.0,99,0.00,,CLR,0.00,0.00,VWS V14.01,2013-08-13 11:09:00,
2013-08-13 06:10:00,67.8,67.5,29.87,WSW,241,0.0,1.0,99,0.00,,CLR,0.00,0.00,VWS V14.01,2013-08-13 11:10:00,
2013-08-13 06:14:00,67.7,67.4,29.87,WSW,241,0.0,1.0,99,0.00,,CLR,0.00,0.00,VWS V14.01,2013-08-13 11:14:00,
2013-08-13 06:15:00,67.7,67.1,29.88,WSW,241,0.0,1.0,98,0.00,,CLR,0.00,0.00,VWS V14.01,2013-08-13 11:15:00,
2013-08-13 06:19:00,67.6,67.0,29.88,WSW,241,0.0,0.0,98,0.00,,CLR,0.00,0.00,VWS V14.01,2013-08-13 11:19:00,
2013-08-13 06:20:00,67.6,67.0,29.88,WSW,241,0.0,0.0,98,0.00,,CLR,0.00,0.00,VWS V14.01,2013-08-13 11:20:00,
2013-08-13 06:24:00,67.5,66.9,29.88,WSW,241,0.0,0.0,98,0.00,,CLR,0.00,0.00,VWS V14.01,2013-08-13 11:24:00,
2013-08-13 06:25:00,67.5,66.9,29.88,WSW,241,0.0,0.0,98,0.00,,CLR,0.00,0.00,VWS V14.01,2013-08-13 11:25:00,
2013-08-13 06:29:00,67.4,66.8,29.88,WSW,241,0.0,0.0,98,0.00,,CLR,0.00,0.00,VWS V14.01,2013-08-13 11:29:00,
2013-08-13 06:30:00,67.4,66.8,29.89,WSW,241,0.0,0.0,98,0.00,,CLR,0.00,0.00,VWS V14.01,2013-08-13 11:30:00,
2013-08-13 06:34:00,67.3,66.7,29.89,WSW,241,0.0,0.0,98,0.00,,CLR,0.00,0.00,VWS V14.01,2013-08-13 11:34:00,
2013-08-13 06:35:00,67.2,66.6,29.89,WSW,241,0.0,0.0,98,0.00,,CLR,0.00,0.00,VWS V14.01,2013-08-13 11:35:00,
2013-08-13 06:39:00,67.2,66.6,29.89,WSW,241,0.0,0.0,98,0.00,,CLR,0.00,0.00,VWS V14.01,2013-08-13 11:39:00,
2013-08-13 06:40:00,67.2,66.6,29.89,WSW,241,0.0,0.0,98,0.00,,CLR,0.00,0.00,VWS V14.01,2013-08-13 11:40:00,
2013-08-13 06:44:00,67.1,66.5,29.89,WSW,241,0.0,0.0,98,0.00,,CLR,0.00,7.00,VWS V14.01,2013-08-13 11:44:00,
2013-08-13 06:45:00,67.1,66.5,29.89,WSW,241,0.0,0.0,98,0.00,,CLR,0.00,7.00,VWS V14.01,2013-08-13 11:45:00,
2013-08-13 06:49:00,67.1,66.5,29.89,WSW,241,0.0,0.0,98,0.00,,CLR,0.00,11.00,VWS V14.01,2013-08-13 11:49:00,
2013-08-13 06:50:00,67.2,66.6,29.89,WSW,241,0.0,0.0,98,0.00,,CLR,0.00,11.00,VWS V14.01,2013-08-13 11:50:00,
2013-08-13 06:54:00,67.2,66.9,29.89,WSW,241,0.0,0.0,99,0.00,,CLR,0.00,12.00,VWS V14.01,2013-08-13 11:54:00,
2013-08-13 06:55:00,67.2,66.9,29.89,WSW,241,0.0,0.0,99,0.00,,CLR,0.00,12.00,VWS V14.01,2013-08-13 11:55:00,
2013-08-13 06:59:00,67.2,66.9,29.89,WSW,241,0.0,0.0,99,0.00,,CLR,0.00,12.00,VWS V14.01,2013-08-13 11:59:00,
2013-08-13 07:00:00,67.2,66.9,29.90,WSW,241,0.0,0.0,99,0.00,,CLR,0.00,14.00,VWS V14.01,2013-08-13 12:00:00,
2013-08-13 07:04:00,67.2,66.9,29.90,WSW,241,0.0,0.0,99,0.00,,CLR,0.00,16.00,VWS V14.01,2013-08-13 12:04:00,
2013-08-13 07:05:00,67.2,66.9,29.90,WSW,241,0.0,0.0,99,0.00,,CLR,0.00,18.00,VWS V14.01,2013-08-13 12:05:00,
2013-08-13 07:09:00,67.2,66.9,29.90,WSW,241,0.0,0.0,99,0.00,,CLR,0.00,18.00,VWS V14.01,2013-08-13 12:09:00,
2013-08-13 07:10:00,67.3,67.0,29.90,WSW,241,0.0,0.0,99,0.00,,CLR,0.00,18.00,VWS V14.01,2013-08-13 12:10:00,
2013-08-13 07:14:00,67.3,67.0,29.90,WSW,241,0.0,0.0,99,0.00,,CLR,0.00,18.00,VWS V14.01,2013-08-13 12:14:00,
2013-08-13 07:15:00,67.3,67.0,29.90,WSW,241,0.0,0.0,99,0.00,,CLR,0.00,18.00,VWS V14.01,2013-08-13 12:15:00,
2013-08-13 07:19:00,67.3,67.0,29.90,WSW,241,0.0,0.0,99,0.00,,CLR,0.00,23.00,VWS V14.01,2013-08-13 12:19:00,
2013-08-13 07:20:00,67.3,67.0,29.90,WSW,241,0.0,0.0,99,0.00,,CLR,0.00,26.00,VWS V14.01,2013-08-13 12:20:00,
2013-08-13 07:24:00,67.3,67.0,29.90,WNW,284,0.0,0.0,99,0.00,,CLR,0.00,30.00,VWS V14.01,2013-08-13 12:24:00,
2013-08-13 07:25:00,67.4,67.1,29.90,WNW,284,0.0,0.0,99,0.00,,CLR,0.00,33.00,VWS V14.01,2013-08-13 12:25:00,
2013-08-13 07:29:00,67.4,67.1,29.91,NNE,26,0.0,0.0,99,0.00,,CLR,0.00,40.00,VWS V14.01,2013-08-13 12:29:00,
2013-08-13 07:30:00,67.4,67.1,29.91,NNE,26,0.0,0.0,99,0.00,,CLR,0.00,40.00,VWS V14.01,2013-08-13 12:30:00,
2013-08-13 07:34:00,67.4,67.1,29.91,NNE,26,0.0,1.0,99,0.00,,CLR,0.00,46.00,VWS V14.01,2013-08-13 12:34:00,
2013-08-13 07:35:00,67.4,67.1,29.91,NNE,26,0.0,1.0,99,0.00,,CLR,0.00,56.00,VWS V14.01,2013-08-13 12:35:00,
2013-08-13 07:39:00,67.4,67.1,29.91,NNE,26,0.0,0.0,99,0.00,,CLR,0.00,60.00,VWS V14.01,2013-08-13 12:39:00,
2013-08-13 07:40:00,67.5,67.2,29.91,NNE,26,0.0,0.0,99,0.00,,CLR,0.00,60.00,VWS V14.01,2013-08-13 12:40:00,
2013-08-13 07:45:00,67.5,67.2,29.91,NNE,26,0.0,0.0,99,0.00,,CLR,0.00,56.00,VWS V14.01,2013-08-13 12:45:00,
2013-08-13 07:50:00,67.5,67.2,29.91,NNE,26,0.0,0.0,99,0.00,,CLR,0.00,53.00,VWS V14.01,2013-08-13 12:50:00,
2013-08-13 07:55:00,67.6,67.3,29.91,WSW,238,0.0,0.0,99,0.00,,CLR,0.00,46.00,VWS V14.01,2013-08-13 12:55:00,
2013-08-13 08:00:00,67.6,67.3,29.91,WSW,238,0.0,0.0,99,0.00,,CLR,0.00,39.00,VWS V14.01,2013-08-13 13:00:00,
2013-08-13 08:05:00,67.8,67.5,29.91,WSW,238,0.0,0.0,99,0.00,,CLR,0.00,47.00,VWS V14.01,2013-08-13 13:05:00,
2013-08-13 08:10:00,67.9,67.6,29.91,WSW,238,0.0,0.0,99,0.00,,CLR,0.00,67.00,VWS V14.01,2013-08-13 13:10:00,
2013-08-13 08:15:00,68.1,67.8,29.91,WSW,238,0.0,0.0,99,0.00,,CLR,0.00,155.00,VWS V14.01,2013-08-13 13:15:00,
2013-08-13 08:20:00,69.1,68.8,29.91,WSW,238,0.0,0.0,99,0.00,,CLR,0.00,141.00,VWS V14.01,2013-08-13 13:20:00,
2013-08-13 08:25:00,69.6,69.6,29.91,WSW,238,0.0,0.0,100,0.00,,CLR,0.00,109.00,VWS V14.01,2013-08-13 13:25:00,
2013-08-13 08:30:00,70.1,70.1,29.91,WSW,238,0.0,0.0,100,0.00,,CLR,0.00,102.00,VWS V14.01,2013-08-13 13:30:00,
2013-08-13 08:35:00,70.3,70.0,29.91,WSW,238,0.0,0.0,99,0.00,,CLR,0.00,156.00,VWS V14.01,2013-08-13 13:35:00,
2013-08-13 08:40:00,70.8,70.5,29.91,WSW,238,0.0,0.0,99,0.00,,CLR,0.00,181.00,VWS V14.01,2013-08-13 13:40:00,
2013-08-13 08:45:00,71.5,71.2,29.91,WSW,238,0.0,1.0,99,0.00,,CLR,0.00,216.00,VWS V14.01,2013-08-13 13:45:00,
2013-08-13 08:50:00,71.7,70.2,29.91,WSW,238,0.0,1.0,95,0.00,,CLR,0.00,135.00,VWS V14.01,2013-08-13 13:50:00,
2013-08-13 08:55:00,72.1,70.3,29.91,WSW,238,0.0,1.0,94,0.00,,CLR,0.00,257.00,VWS V14.01,2013-08-13 13:55:00,
2013-08-13 09:00:00,73.0,71.2,29.91,WSW,238,0.0,3.0,94,0.00,,CLR,0.00,494.00,VWS V14.01,2013-08-13 14:00:00,
2013-08-13 09:05:00,73.9,71.1,29.91,West,277,0.0,0.0,91,0.00,,CLR,0.00,172.00,VWS V14.01,2013-08-13 14:05:00,
2013-08-13 09:10:00,73.8,71.0,29.91,NNE,32,0.0,1.0,91,0.00,,CLR,0.00,156.00,VWS V14.01,2013-08-13 14:10:00,
2013-08-13 09:11:00,73.8,71.0,29.91,NNE,32,0.0,0.0,91,0.00,,CLR,0.00,158.00,VWS V14.01,2013-08-13 14:11:00,
2013-08-13 09:15:00,73.3,70.2,29.92,NNE,31,0.0,1.0,90,0.00,,CLR,0.00,169.00,VWS V14.01,2013-08-13 14:15:00,
2013-08-13 09:16:00,73.3,70.2,29.92,NNE,32,0.0,0.0,90,0.00,,CLR,0.00,186.00,VWS V14.01,2013-08-13 14:16:00,
2013-08-13 09:20:00,73.2,69.8,29.92,NNE,32,0.0,1.0,89,0.00,,CLR,0.00,304.00,VWS V14.01,2013-08-13 14:20:00,
2013-08-13 09:21:00,73.2,69.8,29.92,NNE,32,0.0,0.0,89,0.00,,CLR,0.00,241.00,VWS V14.01,2013-08-13 14:21:00,
2013-08-13 09:25:00,73.3,70.2,29.92,North,349,0.0,2.0,90,0.00,,CLR,0.00,174.00,VWS V14.01,2013-08-13 14:25:00,
2013-08-13 09:26:00,73.3,69.9,29.92,North,349,0.0,0.0,89,0.00,,CLR,0.00,174.00,VWS V14.01,2013-08-13 14:26:00,
2013-08-13 09:30:00,73.3,70.2,29.92,North,349,0.0,1.0,90,0.00,,CLR,0.00,200.00,VWS V14.01,2013-08-13 14:30:00,
2013-08-13 09:31:00,73.4,70.3,29.92,North,349,0.0,0.0,90,0.00,,CLR,0.00,200.00,VWS V14.01,2013-08-13 14:31:00,
2013-08-13 09:35:00,73.9,71.1,29.92,NW,309,0.0,1.0,91,0.00,,CLR,0.00,566.00,VWS V14.01,2013-08-13 14:35:00,
2013-08-13 09:36:00,74.0,70.9,29.92,NW,309,0.0,0.0,90,0.00,,CLR,0.00,566.00,VWS V14.01,2013-08-13 14:36:00,
2013-08-13 09:40:00,74.8,70.3,29.92,ESE,119,0.0,3.0,86,0.00,,CLR,0.00,605.00,VWS V14.01,2013-08-13 14:40:00,
2013-08-13 09:41:00,74.9,70.4,29.92,ESE,119,0.0,0.0,86,0.00,,CLR,0.00,605.00,VWS V14.01,2013-08-13 14:41:00,
2013-08-13 09:45:00,75.5,70.3,29.92,NE,42,0.0,3.0,84,0.00,,CLR,0.00,668.00,VWS V14.01,2013-08-13 14:45:00,
2013-08-13 09:46:00,75.5,71.0,29.92,NE,42,0.0,0.0,86,0.00,,CLR,0.00,668.00,VWS V14.01,2013-08-13 14:46:00,
2013-08-13 09:50:00,76.2,70.3,29.92,SE,130,1.0,4.0,82,0.00,,CLR,0.00,717.00,VWS V14.01,2013-08-13 14:50:00,
2013-08-13 09:51:00,76.2,70.3,29.92,SE,130,1.0,2.0,82,0.00,,CLR,0.00,677.00,VWS V14.01,2013-08-13 14:51:00,
2013-08-13 09:55:00,76.4,70.1,29.92,West,274,0.0,2.0,81,0.00,,CLR,0.00,803.00,VWS V14.01,2013-08-13 14:55:00,
2013-08-13 09:56:00,76.3,70.1,29.92,West,274,0.0,0.0,81,0.00,,CLR,0.00,803.00,VWS V14.01,2013-08-13 14:56:00,
2013-08-13 10:00:00,76.7,70.8,29.92,SSE,154,2.0,3.0,82,0.00,,CLR,0.00,422.00,VWS V14.01,2013-08-13 15:00:00,
2013-08-13 10:01:00,76.7,70.8,29.92,SSE,162,0.0,2.0,82,0.00,,CLR,0.00,399.00,VWS V14.01,2013-08-13 15:01:00,
2013-08-13 10:05:00,76.5,70.2,29.92,ENE,61,1.0,2.0,81,0.00,,CLR,0.00,311.00,VWS V14.01,2013-08-13 15:05:00,
2013-08-13 10:06:00,76.5,70.6,29.92,ENE,61,0.0,1.0,82,0.00,,CLR,0.00,311.00,VWS V14.01,2013-08-13 15:06:00,
2013-08-13 10:10:00,75.9,70.0,29.92,WNW,302,0.0,3.0,82,0.00,,CLR,0.00,308.00,VWS V14.01,2013-08-13 15:10:00,
2013-08-13 10:11:00,75.9,70.0,29.92,WNW,302,0.0,0.0,82,0.00,,CLR,0.00,322.00,VWS V14.01,2013-08-13 15:11:00,
2013-08-13 10:15:00,75.7,70.2,29.93,East,90,0.0,3.0,83,0.00,,CLR,0.00,357.00,VWS V14.01,2013-08-13 15:15:00,
2013-08-13 10:16:00,75.8,70.3,29.93,East,90,0.0,0.0,83,0.00,,CLR,0.00,357.00,VWS V14.01,2013-08-13 15:16:00,
2013-08-13 10:20:00,76.2,70.7,29.93,East,90,0.0,1.0,83,0.00,,CLR,0.00,485.00,VWS V14.01,2013-08-13 15:20:00,
2013-08-13 10:21:00,76.3,70.8,29.93,East,90,0.0,0.0,83,0.00,,CLR,0.00,459.00,VWS V14.01,2013-08-13 15:21:00,
2013-08-13 10:25:00,76.8,70.5,29.93,East,83,0.0,2.0,81,0.00,,CLR,0.00,468.00,VWS V14.01,2013-08-13 15:25:00,
2013-08-13 10:26:00,76.8,70.9,29.93,East,83,0.0,1.0,82,0.00,,CLR,0.00,468.00,VWS V14.01,2013-08-13 15:26:00,
2013-08-13 10:30:00,77.0,70.4,29.93,SSE,166,0.0,3.0,80,0.00,,CLR,0.00,538.00,VWS V14.01,2013-08-13 15:30:00,
2013-08-13 10:31:00,77.2,70.6,29.93,NNE,33,0.0,1.0,80,0.00,,CLR,0.00,538.00,VWS V14.01,2013-08-13 15:31:00,
2013-08-13 10:35:00,77.7,70.7,29.93,East,84,0.0,5.0,79,0.00,,CLR,0.00,810.00,VWS V14.01,2013-08-13 15:35:00,
2013-08-13 10:36:00,77.7,70.7,29.93,East,84,0.0,1.0,79,0.00,,CLR,0.00,810.00,VWS V14.01,2013-08-13 15:36:00,
2013-08-13 10:40:00,77.7,71.4,29.93,WNW,296,1.0,4.0,81,0.00,,CLR,0.00,504.00,VWS V14.01,2013-08-13 15:40:00,
2013-08-13 10:41:00,77.7,70.7,29.93,West,281,1.0,3.0,79,0.00,,CLR,0.00,506.00,VWS V14.01,2013-08-13 15:41:00,
2013-08-13 10:45:00,77.5,70.5,29.93,WNW,293,2.0,4.0,79,0.00,,CLR,0.00,443.00,VWS V14.01,2013-08-13 15:45:00,
2013-08-13 10:46:00,77.4,69.6,29.93,West,272,1.0,2.0,77,0.00,,CLR,0.00,480.00,VWS V14.01,2013-08-13 15:46:00,
2013-08-13 10:50:00,76.9,70.6,29.93,West,275,0.0,5.0,81,0.00,,CLR,0.00,415.00,VWS V14.01,2013-08-13 15:50:00,
2013-08-13 10:51:00,76.8,70.2,29.93,SW,234,1.0,1.0,80,0.00,,CLR,0.00,436.00,VWS V14.01,2013-08-13 15:51:00,
2013-08-13 10:55:00,76.5,70.6,29.93,SW,228,1.0,4.0,82,0.00,,CLR,0.00,457.00,VWS V14.01,2013-08-13 15:55:00,
2013-08-13 10:56:00,76.5,70.2,29.93,SW,228,2.0,3.0,81,0.00,,CLR,0.00,457.00,VWS V14.01,2013-08-13 15:56:00,
2013-08-13 11:00:00,77.9,72.0,29.94,South,179,0.0,3.0,82,0.00,,CLR,0.00,997.00,VWS V14.01,2013-08-13 16:00:00,
2013-08-13 11:02:00,78.2,70.8,29.94,NE,52,0.0,2.0,78,0.00,,CLR,0.00,926.00,VWS V14.01,2013-08-13 16:02:00,
2013-08-13 11:05:00,79.1,71.7,29.94,SSE,165,0.0,3.0,78,0.00,,CLR,0.00,1004.00,VWS V14.01,2013-08-13 16:05:00,
2013-08-13 11:07:00,79.2,70.6,29.94,SW,220,2.0,2.0,75,0.00,,CLR,0.00,1025.00,VWS V14.01,2013-08-13 16:07:00,
2013-08-13 11:10:00,79.4,70.4,29.94,NW,321,3.0,4.0,74,0.00,,CLR,0.00,1071.00,VWS V14.01,2013-08-13 16:10:00,
2013-08-13 11:12:00,79.3,70.3,29.94,NE,49,1.0,4.0,74,0.00,,CLR,0.00,1071.00,VWS V14.01,2013-08-13 16:12:00,
2013-08-13 11:15:00,78.8,70.2,29.94,North,360,0.0,4.0,75,0.00,,CLR,0.00,441.00,VWS V14.01,2013-08-13 16:15:00,
2013-08-13 11:17:00,78.4,69.8,29.94,NNE,16,2.0,3.0,75,0.00,,CLR,0.00,441.00,VWS V14.01,2013-08-13 16:17:00,
2013-08-13 11:20:00,78.2,70.4,29.94,East,88,0.0,3.0,77,0.00,,CLR,0.00,427.00,VWS V14.01,2013-08-13 16:20:00,
2013-08-13 11:22:00,78.2,71.5,29.94,East,88,0.0,0.0,80,0.00,,CLR,0.00,450.00,VWS V14.01,2013-08-13 16:22:00,
2013-08-13 11:25:00,78.1,71.1,29.94,NE,39,2.0,3.0,79,0.00,,CLR,0.00,494.00,VWS V14.01,2013-08-13 16:25:00,
2013-08-13 11:27:00,78.2,71.9,29.94,NE,39,0.0,2.0,81,0.00,,CLR,0.00,522.00,VWS V14.01,2013-08-13 16:27:00,
2013-08-13 11:30:00,78.5,71.4,29.94,NE,47,1.0,2.0,79,0.00,,CLR,0.00,431.00,VWS V14.01,2013-08-13 16:30:00,
2013-08-13 11:32:00,78.4,71.7,29.94,WNW,292,0.0,2.0,80,0.00,,CLR,0.00,397.00,VWS V14.01,2013-08-13 16:32:00,
2013-08-13 11:35:00,78.0,70.6,29.94,SW,232,0.0,3.0,78,0.00,,CLR,0.00,362.00,VWS V14.01,2013-08-13 16:35:00,
2013-08-13 11:37:00,77.7,70.3,29.94,SW,232,0.0,1.0,78,0.00,,CLR,0.00,352.00,VWS V14.01,2013-08-13 16:37:00,
2013-08-13 11:40:00,77.4,70.4,29.94,SW,234,0.0,1.0,79,0.00,,CLR,0.00,355.00,VWS V14.01,2013-08-13 16:40:00,
2013-08-13 11:42:00,77.2,69.8,29.94,NNE,31,1.0,3.0,78,0.00,,CLR,0.00,364.00,VWS V14.01,2013-08-13 16:42:00,
2013-08-13 11:45:00,77.1,70.5,29.94,NNE,31,0.0,3.0,80,0.00,,CLR,0.00,360.00,VWS V14.01,2013-08-13 16:45:00,
2013-08-13 11:47:00,77.0,69.2,29.94,NNE,31,1.0,1.0,77,0.00,,CLR,0.00,362.00,VWS V14.01,2013-08-13 16:47:00,
2013-08-13 11:50:00,77.1,69.3,29.94,NW,311,0.0,3.0,77,0.00,,CLR,0.00,394.00,VWS V14.01,2013-08-13 16:50:00,
2013-08-13 11:52:00,77.1,69.3,29.94,NW,311,0.0,0.0,77,0.00,,CLR,0.00,403.00,VWS V14.01,2013-08-13 16:52:00,
2013-08-13 11:55:00,77.2,68.7,29.94,ENE,68,0.0,3.0,75,0.00,,CLR,0.00,401.00,VWS V14.01,2013-08-13 16:55:00,
2013-08-13 11:57:00,77.3,69.9,29.94,ENE,68,0.0,1.0,78,0.00,,CLR,0.00,427.00,VWS V14.01,2013-08-13 16:57:00,
2013-08-13 12:00:00,77.5,69.7,29.94,ENE,68,0.0,1.0,77,0.00,,CLR,0.00,457.00,VWS V14.01,2013-08-13 17:00:00,
2013-08-13 12:02:00,77.5,69.3,29.94,SE,134,3.0,3.0,76,0.00,,CLR,0.00,455.00,VWS V14.01,2013-08-13 17:02:00,
2013-08-13 12:05:00,77.3,67.2,29.94,ENE,57,0.0,5.0,71,0.00,,CLR,0.00,473.00,VWS V14.01,2013-08-13 17:05:00,
2013-08-13 12:07:00,77.3,67.2,29.94,South,170,0.0,4.0,71,0.00,,CLR,0.00,461.00,VWS V14.01,2013-08-13 17:07:00,
2013-08-13 12:10:00,77.2,67.5,29.94,WSW,250,1.0,4.0,72,0.00,,CLR,0.00,480.00,VWS V14.01,2013-08-13 17:10:00,
2013-08-13 12:12:00,77.2,66.7,29.94,NW,311,2.0,2.0,70,0.00,,CLR,0.00,483.00,VWS V14.01,2013-08-13 17:12:00,
2013-08-13 12:15:00,77.3,67.6,29.94,WNW,292,1.0,4.0,72,0.00,,CLR,0.00,487.00,VWS V14.01,2013-08-13 17:15:00,
2013-08-13 12:17:00,77.4,66.9,29.94,East,92,0.0,3.0,70,0.00,,CLR,0.00,533.00,VWS V14.01,2013-08-13 17:17:00,
2013-08-13 12:20:00,77.5,66.9,29.94,SW,229,2.0,3.0,70,0.00,,CLR,0.00,480.00,VWS V14.01,2013-08-13 17:20:00,
2013-08-13 12:22:00,77.4,66.9,29.94,SW,229,0.0,2.0,70,0.00,,CLR,0.00,473.00,VWS V14.01,2013-08-13 17:22:00,
2013-08-13 12:25:00,77.4,66.0,29.94,SW,214,0.0,2.0,68,0.00,,CLR,0.00,552.00,VWS V14.01,2013-08-13 17:25:00,
2013-08-13 12:27:00,78.3,69.7,29.94,SSW,211,1.0,1.0,75,0.00,,CLR,0.00,1158.00,VWS V14.01,2013-08-13 17:27:00,
2013-08-13 12:30:00,79.5,67.2,29.94,NE,49,2.0,3.0,66,0.00,,CLR,0.00,1099.00,VWS V14.01,2013-08-13 17:30:00,
2013-08-13 12:33:00,79.9,69.2,29.94,SE,141,3.0,3.0,70,0.00,,CLR,0.00,698.00,VWS V14.01,2013-08-13 17:33:00,
2013-08-13 12:35:00,79.7,65.5,29.94,NNW,332,0.0,3.0,62,0.00,,CLR,0.00,550.00,VWS V14.01,2013-08-13 17:35:00,
2013-08-13 12:38:00,79.4,66.6,29.94,NE,50,0.0,2.0,65,0.00,,CLR,0.00,575.00,VWS V14.01,2013-08-13 17:38:00,
2013-08-13 12:40:00,79.1,66.8,29.94,SW,219,0.0,2.0,66,0.00,,CLR,0.00,575.00,VWS V14.01,2013-08-13 17:40:00,
2013-08-13 12:43:00,79.3,69.5,29.94,WNW,296,1.0,2.0,72,0.00,,CLR,0.00,575.00,VWS V14.01,2013-08-13 17:43:00,
2013-08-13 12:45:00,80.1,68.6,29.93,NNE,13,0.0,2.0,68,0.00,,CLR,0.00,575.00,VWS V14.01,2013-08-13 17:45:00,
2013-08-13 12:48:00,80.7,68.3,29.93,ESE,102,1.0,3.0,66,0.00,,CLR,0.00,981.00,VWS V14.01,2013-08-13 17:48:00,
2013-08-13 12:50:00,81.0,69.4,29.93,ESE,112,0.0,3.0,68,0.00,,CLR,0.00,981.00,VWS V14.01,2013-08-13 17:50:00,
2013-08-13 12:53:00,80.9,69.8,29.93,ESE,119,0.0,1.0,69,0.00,,CLR,0.00,1032.00,VWS V14.01,2013-08-13 17:53:00,
2013-08-13 12:55:00,81.1,70.4,29.93,SE,132,0.0,4.0,70,0.00,,CLR,0.00,1093.00,VWS V14.01,2013-08-13 17:55:00,
2013-08-13 12:58:00,81.1,67.8,29.93,West,271,0.0,3.0,64,0.00,,CLR,0.00,872.00,VWS V14.01,2013-08-13 17:58:00,
2013-08-13 13:00:00,80.8,68.8,29.93,NNW,342,1.0,3.0,67,0.00,,CLR,0.00,585.00,VWS V14.01,2013-08-13 18:00:00,
2013-08-13 13:03:00,80.3,67.5,29.93,WNW,294,0.0,3.0,65,0.00,,FEW033,0.00,633.00,VWS V14.01,2013-08-13 18:03:00,
2013-08-13 13:05:00,80.4,69.7,29.93,WNW,294,0.0,3.0,70,0.00,,CLR,0.00,969.00,VWS V14.01,2013-08-13 18:05:00,
2013-08-13 13:08:00,81.1,71.2,29.93,NNW,332,0.0,1.0,72,0.00,,FEW033,0.00,1020.00,VWS V14.01,2013-08-13 18:08:00,
2013-08-13 13:10:00,81.3,68.9,29.93,ENE,69,1.0,2.0,66,0.00,,CLR,0.00,921.00,VWS V14.01,2013-08-13 18:10:00,
2013-08-13 13:13:00,81.4,66.7,29.93,North,11,0.0,4.0,61,0.00,,FEW033,0.00,759.00,VWS V14.01,2013-08-13 18:13:00,
2013-08-13 13:15:00,81.0,67.2,29.92,North,355,2.0,4.0,63,0.00,,CLR,0.00,875.00,VWS V14.01,2013-08-13 18:15:00,
2013-08-13 13:18:00,81.0,68.1,29.92,WSW,256,0.0,3.0,65,0.00,,FEW033,0.00,875.00,VWS V14.01,2013-08-13 18:18:00,
2013-08-13 13:20:00,81.3,68.4,29.92,North,5,0.0,3.0,65,0.00,,CLR,0.00,875.00,VWS V14.01,2013-08-13 18:20:00,
2013-08-13 13:23:00,81.4,70.7,29.92,East,96,5.0,5.0,70,0.00,,FEW033,0.00,828.00,VWS V14.01,2013-08-13 18:23:00,
2013-08-13 13:25:00,81.2,68.3,29.92,NE,44,0.0,5.0,65,0.00,,CLR,0.00,823.00,VWS V14.01,2013-08-13 18:25:00,
2013-08-13 13:28:00,80.8,70.1,29.92,ESE,110,0.0,2.0,70,0.00,,FEW033,0.00,503.00,VWS V14.01,2013-08-13 18:28:00,
2013-08-13 13:30:00,80.6,68.6,29.92,NE,37,1.0,2.0,67,0.00,,CLR,0.00,719.00,VWS V14.01,2013-08-13 18:30:00,
2013-08-13 13:33:00,80.3,67.5,29.92,NW,315,2.0,4.0,65,0.00,,FEW033,0.00,733.00,VWS V14.01,2013-08-13 18:33:00,
2013-08-13 13:35:00,80.0,66.7,29.92,NW,315,0.0,4.0,64,0.00,,CLR,0.00,575.00,VWS V14.01,2013-08-13 18:35:00,
2013-08-13 13:38:00,80.3,67.9,29.92,SSW,207,1.0,2.0,66,0.00,,FEW033,0.00,916.00,VWS V14.01,2013-08-13 18:38:00,
2013-08-13 13:40:00,80.4,68.4,29.92,SSE,157,1.0,3.0,67,0.00,,CLR,0.00,670.00,VWS V14.01,2013-08-13 18:40:00,
2013-08-13 13:43:00,80.6,67.3,29.92,NNE,29,3.0,3.0,64,0.00,,FEW033,0.00,939.00,VWS V14.01,2013-08-13 18:43:00,
2013-08-13 13:45:00,81.0,70.3,29.92,NNE,29,0.0,3.0,70,0.00,,CLR,0.00,926.00,VWS V14.01,2013-08-13 18:45:00,
2013-08-13 13:48:00,81.5,68.2,29.92,ENE,70,0.0,2.0,64,0.00,,FEW033,0.00,933.00,VWS V14.01,2013-08-13 18:48:00,
2013-08-13 13:50:00,81.6,69.2,29.92,NNE,17,1.0,3.0,66,0.00,,CLR,0.00,858.00,VWS V14.01,2013-08-13 18:50:00,
2013-08-13 13:53:00,81.6,67.3,29.92,ESE,111,0.0,4.0,62,0.00,,FEW033,0.00,1016.00,VWS V14.01,2013-08-13 18:53:00,
2013-08-13 13:55:00,81.8,69.3,29.92,ENE,62,0.0,4.0,66,0.00,,CLR,0.00,1100.00,VWS V14.01,2013-08-13 18:55:00,
2013-08-13 13:58:00,81.8,68.9,29.92,NNE,28,0.0,3.0,65,0.00,,FEW033,0.00,1100.00,VWS V14.01,2013-08-13 18:58:00,
2013-08-13 14:00:00,81.2,69.6,29.91,NW,320,2.0,3.0,68,0.00,,CLR,0.00,1100.00,VWS V14.01,2013-08-13 19:00:00,
2013-08-13 14:03:00,80.8,69.7,29.91,SE,131,0.0,3.0,69,0.00,,CLR,0.00,902.00,VWS V14.01,2013-08-13 19:03:00,
2013-08-13 14:05:00,81.0,68.6,29.91,SE,131,0.0,3.0,66,0.00,,CLR,0.00,863.00,VWS V14.01,2013-08-13 19:05:00,
2013-08-13 14:08:00,81.5,68.2,29.91,NNE,12,0.0,5.0,64,0.00,,CLR,0.00,819.00,VWS V14.01,2013-08-13 19:08:00,
2013-08-13 14:10:00,81.7,68.3,29.91,North,11,0.0,5.0,64,0.00,,CLR,0.00,823.00,VWS V14.01,2013-08-13 19:10:00,
2013-08-13 14:13:00,81.5,68.6,29.91,North,5,0.0,3.0,65,0.00,,CLR,0.00,450.00,VWS V14.01,2013-08-13 19:13:00,
2013-08-13 14:15:00,81.3,69.3,29.91,SSE,161,0.0,3.0,67,0.00,,CLR,0.00,450.00,VWS V14.01,2013-08-13 19:15:00,
2013-08-13 14:19:00,81.5,68.2,29.91,South,174,1.0,2.0,64,0.00,,CLR,0.00,450.00,VWS V14.01,2013-08-13 19:19:00,
2013-08-13 14:20:00,81.4,69.4,29.91,NNE,26,0.0,2.0,67,0.00,,CLR,0.00,450.00,VWS V14.01,2013-08-13 19:20:00,
2013-08-13 14:24:00,81.1,68.7,29.91,SE,132,1.0,4.0,66,0.00,,CLR,0.00,693.00,VWS V14.01,2013-08-13 19:24:00,
2013-08-13 14:25:00,81.2,68.8,29.91,SW,215,0.0,4.0,66,0.00,,CLR,0.00,652.00,VWS V14.01,2013-08-13 19:25:00,
2013-08-13 14:29:00,80.7,69.6,29.91,South,184,0.0,1.0,69,0.00,,CLR,0.00,373.00,VWS V14.01,2013-08-13 19:29:00,
2013-08-13 14:30:00,80.5,69.4,29.91,South,173,2.0,2.0,69,0.00,,CLR,0.00,357.00,VWS V14.01,2013-08-13 19:30:00,
2013-08-13 14:34:00,79.6,69.4,29.91,WSW,242,0.0,2.0,71,0.00,,CLR,0.00,353.00,VWS V14.01,2013-08-13 19:34:00,
2013-08-13 14:35:00,79.4,67.5,29.91,SW,227,0.0,2.0,67,0.00,,CLR,0.00,403.00,VWS V14.01,2013-08-13 19:35:00,
2013-08-13 14:39:00,79.3,67.8,29.91,WSW,250,0.0,1.0,68,0.00,,CLR,0.00,457.00,VWS V14.01,2013-08-13 19:39:00,
2013-08-13 14:40:00,79.4,68.3,29.91,WSW,251,0.0,1.0,69,0.00,,CLR,0.00,534.00,VWS V14.01,2013-08-13 19:40:00,
2013-08-13 14:44:00,79.6,69.8,29.91,WSW,250,0.0,1.0,72,0.00,,CLR,0.00,418.00,VWS V14.01,2013-08-13 19:44:00,
2013-08-13 14:45:00,79.6,69.0,29.91,WSW,250,0.0,1.0,70,0.00,,CLR,0.00,396.00,VWS V14.01,2013-08-13 19:45:00,
2013-08-13 14:49:00,79.4,68.3,29.91,SSW,206,0.0,3.0,69,0.00,,CLR,0.00,492.00,VWS V14.01,2013-08-13 19:49:00,
2013-08-13 14:50:00,79.4,68.3,29.91,NE,46,0.0,3.0,69,0.00,,CLR,0.00,492.00,VWS V14.01,2013-08-13 19:50:00,
2013-08-13 14:54:00,80.2,69.5,29.91,NE,34,0.0,3.0,70,0.00,,CLR,0.00,629.00,VWS V14.01,2013-08-13 19:54:00,
2013-08-13 14:55:00,80.3,69.6,29.91,NNE,33,0.0,3.0,70,0.00,,CLR,0.00,629.00,VWS V14.01,2013-08-13 19:55:00,
2013-08-13 14:59:00,81.0,69.9,29.91,East,87,0.0,2.0,69,0.00,,CLR,0.00,881.00,VWS V14.01,2013-08-13 19:59:00,
2013-08-13 15:00:00,81.5,71.2,29.90,North,351,0.0,2.0,71,0.00,,CLR,0.00,881.00,VWS V14.01,2013-08-13 20:00:00,
2013-08-13 15:04:00,82.2,71.0,29.90,NNW,329,1.0,5.0,69,0.00,,FEW100,0.00,962.00,VWS V14.01,2013-08-13 20:04:00,
2013-08-13 15:05:00,82.2,67.4,29.90,NNE,12,0.0,5.0,61,0.00,,CLR,0.00,962.00,VWS V14.01,2013-08-13 20:05:00,
2013-08-13 15:09:00,81.7,68.3,29.90,South,191,1.0,2.0,64,0.00,,FEW100,0.00,654.00,VWS V14.01,2013-08-13 20:09:00,
2013-08-13 15:10:00,81.4,68.1,29.90,SSW,192,0.0,2.0,64,0.00,,CLR,0.00,652.00,VWS V14.01,2013-08-13 20:10:00,
2013-08-13 15:14:00,81.2,69.6,29.90,SW,236,0.0,1.0,68,0.00,,FEW100,0.00,568.00,VWS V14.01,2013-08-13 20:14:00,
2013-08-13 15:15:00,81.0,68.6,29.90,NNE,26,2.0,2.0,66,0.00,,CLR,0.00,519.00,VWS V14.01,2013-08-13 20:15:00,
2013-08-13 15:19:00,80.6,69.1,29.90,SE,141,0.0,3.0,68,0.00,,FEW100,0.00,571.00,VWS V14.01,2013-08-13 20:19:00,
2013-08-13 15:20:00,80.5,67.2,29.90,SW,217,1.0,3.0,64,0.00,,CLR,0.00,545.00,VWS V14.01,2013-08-13 20:20:00,
2013-08-13 15:24:00,79.9,69.2,29.90,NW,319,0.0,1.0,70,0.00,,FEW100,0.00,367.00,VWS V14.01,2013-08-13 20:24:00,
2013-08-13 15:25:00,79.8,67.4,29.90,WNW,291,0.0,2.0,66,0.00,,CLR,0.00,369.00,VWS V14.01,2013-08-13 20:25:00,
2013-08-13 15:29:00,79.4,68.8,29.90,WNW,291,0.0,0.0,70,0.00,,FEW100,0.00,417.00,VWS V14.01,2013-08-13 20:29:00,
2013-08-13 15:30:00,79.3,68.7,29.90,WNW,291,0.0,0.0,70,0.00,,CLR,0.00,417.00,VWS V14.01,2013-08-13 20:30:00,
2013-08-13 15:34:00,79.2,69.0,29.90,NE,44,1.0,3.0,71,0.00,,FEW100,0.00,550.00,VWS V14.01,2013-08-13 20:34:00,
2013-08-13 15:35:00,79.2,68.6,29.90,NE,34,0.0,3.0,70,0.00,,CLR,0.00,475.00,VWS V14.01,2013-08-13 20:35:00,
2013-08-13 15:39:00,79.3,67.8,29.90,NE,34,0.0,1.0,68,0.00,,FEW100,0.00,420.00,VWS V14.01,2013-08-13 20:39:00,
2013-08-13 15:40:00,79.3,68.3,29.90,NE,34,0.0,1.0,69,0.00,,CLR,0.00,371.00,VWS V14.01,2013-08-13 20:40:00,
2013-08-13 15:44:00,78.9,67.4,29.89,NNE,33,0.0,1.0,68,0.00,,FEW100,0.00,360.00,VWS V14.01,2013-08-13 20:44:00,
2013-08-13 15:45:00,78.8,67.4,29.89,NNE,33,0.0,1.0,68,0.00,,CLR,0.00,352.00,VWS V14.01,2013-08-13 20:45:00,
2013-08-13 15:49:00,78.6,67.6,29.89,NW,305,1.0,1.0,69,0.00,,FEW100,0.00,304.00,VWS V14.01,2013-08-13 20:49:00,
2013-08-13 15:50:00,78.5,67.1,29.89,NW,304,0.0,1.0,68,0.00,,CLR,0.00,290.00,VWS V14.01,2013-08-13 20:50:00,
2013-08-13 15:54:00,77.9,67.3,29.89,NW,304,0.0,1.0,70,0.00,,FEW100,0.00,251.00,VWS V14.01,2013-08-13 20:54:00,
2013-08-13 15:55:00,77.9,66.5,29.89,NW,304,0.0,1.0,68,0.00,,CLR,0.00,248.00,VWS V14.01,2013-08-13 20:55:00,
2013-08-13 16:00:00,77.4,66.4,29.89,NNW,340,0.0,1.0,69,0.00,,FEW100,0.00,246.00,VWS V14.01,2013-08-13 21:00:00,
2013-08-13 16:05:00,76.8,67.1,29.89,NNW,340,0.0,1.0,72,0.00,,CLR,0.00,237.00,VWS V14.01,2013-08-13 21:05:00,
2013-08-13 16:10:00,76.5,66.4,29.89,NNE,18,0.0,2.0,71,0.00,,CLR,0.00,243.00,VWS V14.01,2013-08-13 21:10:00,
2013-08-13 16:15:00,76.5,67.6,29.88,NNE,17,0.0,1.0,74,0.00,,CLR,0.00,292.00,VWS V14.01,2013-08-13 21:15:00,
2013-08-13 16:20:00,76.6,69.6,29.88,North,355,0.0,2.0,79,0.00,,CLR,0.00,262.00,VWS V14.01,2013-08-13 21:20:00,
2013-08-13 16:25:00,76.6,67.3,29.88,North,355,0.0,0.0,73,0.00,,CLR,0.00,276.00,VWS V14.01,2013-08-13 21:25:00,
2013-08-13 16:30:00,76.8,69.4,29.88,NE,53,0.0,1.0,78,0.00,,CLR,0.00,357.00,VWS V14.01,2013-08-13 21:30:00,
2013-08-13 16:35:00,77.2,68.3,29.88,East,95,0.0,2.0,74,0.00,,CLR,0.00,348.00,VWS V14.01,2013-08-13 21:35:00,
2013-08-13 16:40:00,77.3,67.2,29.88,East,95,0.0,1.0,71,0.00,,CLR,0.00,362.00,VWS V14.01,2013-08-13 21:40:00,
2013-08-13 16:45:00,77.2,65.8,29.88,East,95,0.0,2.0,68,0.00,,CLR,0.00,297.00,VWS V14.01,2013-08-13 21:45:00,
2013-08-13 16:50:00,77.3,67.6,29.88,East,92,0.0,1.0,72,0.00,,CLR,0.00,401.00,VWS V14.01,2013-08-13 21:50:00,
2013-08-13 16:55:00,78.0,67.8,29.88,East,92,0.0,1.0,71,0.00,,CLR,0.00,496.00,VWS V14.01,2013-08-13 21:55:00,
2013-08-13 17:00:00,78.5,67.9,29.87,East,92,0.0,0.0,70,0.00,,FEW032,0.00,496.00,VWS V14.01,2013-08-13 22:00:00,
2013-08-13 17:05:00,78.2,66.4,29.87,South,178,0.0,3.0,67,0.00,,FEW032,0.00,659.00,VWS V14.01,2013-08-13 22:05:00,
2013-08-13 17:10:00,78.3,67.3,29.87,West,281,0.0,1.0,69,0.00,,FEW032,0.00,241.00,VWS V14.01,2013-08-13 22:10:00,
2013-08-13 17:15:00,77.4,65.6,29.87,ESE,103,0.0,1.0,67,0.00,,FEW032,0.00,178.00,VWS V14.01,2013-08-13 22:15:00,
2013-08-13 17:20:00,76.5,66.4,29.87,ESE,105,0.0,1.0,71,0.00,,FEW032,0.00,204.00,VWS V14.01,2013-08-13 22:20:00,
2013-08-13 17:25:00,76.1,67.2,29.87,ESE,105,0.0,1.0,74,0.00,,FEW032,0.00,158.00,VWS V14.01,2013-08-13 22:25:00,
2013-08-13 17:30:00,75.5,67.4,29.87,ESE,105,0.0,0.0,76,0.00,,FEW032,0.00,156.00,VWS V14.01,2013-08-13 22:30:00,
2013-08-13 17:35:00,75.3,66.1,29.87,SSE,155,0.0,0.0,73,0.00,,FEW032,0.00,146.00,VWS V14.01,2013-08-13 22:35:00,
2013-08-13 17:40:00,75.1,67.0,29.87,SSE,155,0.0,1.0,76,0.00,,CLR,0.00,139.00,VWS V14.01,2013-08-13 22:40:00,
2013-08-13 17:41:00,75.1,67.0,29.87,SSE,155,0.0,0.0,76,0.00,,FEW032,0.00,137.00,VWS V14.01,2013-08-13 22:41:00,
2013-08-13 17:45:00,75.1,66.6,29.87,SSE,155,0.0,1.0,75,0.00,,CLR,0.00,127.00,VWS V14.01,2013-08-13 22:45:00,
2013-08-13 17:46:00,75.1,66.6,29.87,SSE,155,0.0,0.0,75,0.00,,FEW032,0.00,125.00,VWS V14.01,2013-08-13 22:46:00,
2013-08-13 17:50:00,74.9,67.2,29.87,SSE,155,0.0,0.0,77,0.00,,CLR,0.00,125.00,VWS V14.01,2013-08-13 22:50:00,
2013-08-13 17:51:00,74.9,67.2,29.87,SSE,155,0.0,0.0,77,0.00,,FEW032,0.00,125.00,VWS V14.01,2013-08-13 22:51:00,
2013-08-13 17:55:00,74.8,68.6,29.87,SSE,155,0.0,1.0,81,0.00,,CLR,0.00,128.00,VWS V14.01,2013-08-13 22:55:00,
2013-08-13 17:56:00,74.8,68.6,29.87,SSE,155,0.0,0.0,81,0.00,,FEW032,0.00,130.00,VWS V14.01,2013-08-13 22:56:00,
2013-08-13 18:00:00,74.6,67.3,29.88,SSE,155,0.0,0.0,78,0.00,,CLR,0.00,135.00,VWS V14.01,2013-08-13 23:00:00,
2013-08-13 18:01:00,74.5,67.2,29.88,SSE,155,0.0,0.0,78,0.00,,CLR,0.00,135.00,VWS V14.01,2013-08-13 23:01:00,
2013-08-13 18:05:00,74.6,68.0,29.88,SSE,155,0.0,1.0,80,0.00,,CLR,0.00,125.00,VWS V14.01,2013-08-13 23:05:00,
2013-08-13 18:06:00,74.5,67.6,29.88,SSE,155,0.0,0.0,79,0.00,,CLR,0.00,125.00,VWS V14.01,2013-08-13 23:06:00,
2013-08-13 18:10:00,74.5,67.6,29.88,SSE,155,0.0,1.0,79,0.00,,CLR,0.00,144.00,VWS V14.01,2013-08-13 23:10:00,
2013-08-13 18:11:00,74.5,67.6,29.88,SSE,155,0.0,0.0,79,0.00,,CLR,0.00,144.00,VWS V14.01,2013-08-13 23:11:00,
2013-08-13 18:15:00,74.6,66.2,29.87,East,86,0.0,2.0,75,0.00,,CLR,0.00,139.00,VWS V14.01,2013-08-13 23:15:00,
2013-08-13 18:16:00,74.6,66.5,29.87,East,86,0.0,0.0,76,0.00,,CLR,0.00,139.00,VWS V14.01,2013-08-13 23:16:00,
2013-08-13 18:20:00,74.6,66.9,29.87,East,86,0.0,0.0,77,0.00,,CLR,0.00,135.00,VWS V14.01,2013-08-13 23:20:00,
2013-08-13 18:21:00,74.5,66.4,29.87,East,86,0.0,0.0,76,0.00,,CLR,0.00,132.00,VWS V14.01,2013-08-13 23:21:00,
2013-08-13 18:25:00,74.3,66.2,29.87,East,86,0.0,1.0,76,0.00,,CLR,0.00,130.00,VWS V14.01,2013-08-13 23:25:00,
2013-08-13 18:26:00,74.3,66.2,29.87,East,86,0.0,0.0,76,0.00,,CLR,0.00,144.00,VWS V14.01,2013-08-13 23:26:00,
2013-08-13 18:30:00,74.1,66.4,29.87,East,86,0.0,0.0,77,0.00,,CLR,0.00,144.00,VWS V14.01,2013-08-13 23:30:00,
2013-08-13 18:31:00,74.1,66.4,29.87,East,86,0.0,0.0,77,0.00,,CLR,0.00,146.00,VWS V14.01,2013-08-13 23:31:00,
2013-08-13 18:35:00,74.1,65.7,29.87,East,86,0.0,0.0,75,0.00,,CLR,0.00,132.00,VWS V14.01,2013-08-13 23:35:00,
2013-08-13 18:36:00,74.1,65.7,29.87,East,86,0.0,0.0,75,0.00,,CLR,0.00,128.00,VWS V14.01,2013-08-13 23:36:00,
2013-08-13 18:40:00,74.1,65.7,29.87,East,86,0.0,0.0,75,0.00,,CLR,0.00,109.00,VWS V14.01,2013-08-13 23:40:00,
2013-08-13 18:41:00,74.1,66.4,29.87,East,86,0.0,0.0,77,0.00,,CLR,0.00,105.00,VWS V14.01,2013-08-13 23:41:00,
2013-08-13 18:45:00,73.9,65.5,29.88,East,86,0.0,0.0,75,0.00,,CLR,0.00,98.00,VWS V14.01,2013-08-13 23:45:00,
2013-08-13 18:46:00,73.9,65.5,29.88,East,86,0.0,1.0,75,0.00,,CLR,0.00,88.00,VWS V14.01,2013-08-13 23:46:00,
2013-08-13 18:50:00,73.8,66.9,29.88,East,86,0.0,2.0,79,0.00,,CLR,0.00,76.00,VWS V14.01,2013-08-13 23:50:00,
2013-08-13 18:51:00,73.7,66.4,29.88,East,86,0.0,0.0,78,0.00,,CLR,0.00,74.00,VWS V14.01,2013-08-13 23:51:00,
2013-08-13 18:55:00,73.4,66.1,29.88,East,86,0.0,2.0,78,0.00,,CLR,0.00,67.00,VWS V14.01,2013-08-13 23:55:00,
2013-08-13 18:56:00,73.4,65.8,29.88,East,86,0.0,0.0,77,0.00,,CLR,0.00,65.00,VWS V14.01,2013-08-13 23:56:00,
2013-08-13 19:00:00,73.2,65.2,29.88,East,90,0.0,3.0,76,0.00,,CLR,0.00,58.00,VWS V14.01,2013-08-14 00:00:00,
2013-08-13 19:01:00,73.2,65.2,29.88,East,90,0.0,0.0,76,0.00,,CLR,0.00,56.00,VWS V14.01,2013-08-14 00:01:00,
2013-08-13 19:05:00,73.3,66.0,29.88,East,90,0.0,1.0,78,0.00,,CLR,0.00,51.00,VWS V14.01,2013-08-14 00:05:00,
2013-08-13 19:06:00,73.3,66.0,29.88,East,90,0.0,0.0,78,0.00,,CLR,0.00,47.00,VWS V14.01,2013-08-14 00:06:00,
2013-08-13 19:10:00,73.3,66.4,29.88,East,90,0.0,1.0,79,0.00,,CLR,0.00,44.00,VWS V14.01,2013-08-14 00:10:00,
2013-08-13 19:11:00,73.3,65.7,29.88,East,90,0.0,0.0,77,0.00,,CLR,0.00,44.00,VWS V14.01,2013-08-14 00:11:00,
2013-08-13 19:15:00,73.3,65.3,29.88,East,90,0.0,1.0,76,0.00,,CLR,0.00,51.00,VWS V14.01,2013-08-14 00:15:00,
2013-08-13 19:16:00,73.3,65.7,29.88,ESE,114,0.0,2.0,77,0.00,,CLR,0.00,51.00,VWS V14.01,2013-08-14 00:16:00,
2013-08-13 19:20:00,73.3,65.3,29.88,ESE,114,0.0,2.0,76,0.00,,CLR,0.00,44.00,VWS V14.01,2013-08-14 00:20:00,
2013-08-13 19:22:00,73.3,64.5,29.88,East,86,0.0,0.0,74,0.00,,CLR,0.00,42.00,VWS V14.01,2013-08-14 00:22:00,
2013-08-13 19:25:00,73.3,65.3,29.88,East,86,0.0,0.0,76,0.00,,CLR,0.00,42.00,VWS V14.01,2013-08-14 00:25:00,
2013-08-13 19:27:00,73.3,64.9,29.88,East,86,0.0,0.0,75,0.00,,CLR,0.00,40.00,VWS V14.01,2013-08-14 00:27:00,
2013-08-13 19:30:00,73.2,64.8,29.89,East,86,0.0,0.0,75,0.00,,CLR,0.00,44.00,VWS V14.01,2013-08-14 00:30:00,
2013-08-13 19:32:00,73.2,64.8,29.89,East,86,0.0,0.0,75,0.00,,CLR,0.00,42.00,VWS V14.01,2013-08-14 00:32:00,
2013-08-13 19:35:00,73.1,65.5,29.89,East,86,0.0,0.0,77,0.00,,CLR,0.00,37.00,VWS V14.01,2013-08-14 00:35:00,
2013-08-13 19:37:00,73.1,65.1,29.89,East,86,0.0,0.0,76,0.00,,CLR,0.00,35.00,VWS V14.01,2013-08-14 00:37:00,
2013-08-13 19:40:00,73.1,65.1,29.89,East,86,0.0,0.0,76,0.00,,CLR,0.00,35.00,VWS V14.01,2013-08-14 00:40:00,
2013-08-13 19:42:00,73.1,65.5,29.89,East,86,0.0,0.0,77,0.00,,CLR,0.00,35.00,VWS V14.01,2013-08-14 00:42:00,
2013-08-13 19:45:00,73.0,65.4,29.89,East,86,0.0,0.0,77,0.00,,CLR,0.00,33.00,VWS V14.01,2013-08-14 00:45:00,
2013-08-13 19:47:00,73.0,65.7,29.89,SSE,147,2.0,3.0,78,0.00,,CLR,0.00,32.00,VWS V14.01,2013-08-14 00:47:00,
2013-08-13 19:50:00,72.9,65.3,29.89,SSE,147,0.0,3.0,77,0.00,,CLR,0.00,26.00,VWS V14.01,2013-08-14 00:50:00,
2013-08-13 19:52:00,72.8,65.2,29.89,SSE,147,0.0,0.0,77,0.00,,CLR,0.00,23.00,VWS V14.01,2013-08-14 00:52:00,
2013-08-13 19:55:00,72.8,65.9,29.89,SSE,147,0.0,0.0,79,0.00,,CLR,0.00,14.00,VWS V14.01,2013-08-14 00:55:00,
2013-08-13 19:57:00,72.8,65.9,29.89,SSE,147,0.0,0.0,79,0.00,,CLR,0.00,12.00,VWS V14.01,2013-08-14 00:57:00,
2013-08-13 20:00:00,72.7,65.8,29.90,SSE,147,0.0,0.0,79,0.00,,CLR,0.00,7.00,VWS V14.01,2013-08-14 01:00:00,
2013-08-13 20:02:00,72.7,65.4,29.90,SSE,147,0.0,0.0,78,0.00,,CLR,0.00,0.00,VWS V14.01,2013-08-14 01:02:00,
2013-08-13 20:05:00,72.6,65.7,29.90,SSE,148,0.0,1.0,79,0.00,,CLR,0.00,0.00,VWS V14.01,2013-08-14 01:05:00,
2013-08-13 20:07:00,72.5,65.6,29.90,SSE,148,0.0,0.0,79,0.00,,CLR,0.00,0.00,VWS V14.01,2013-08-14 01:07:00,
2013-08-13 20:10:00,72.4,65.2,29.90,SSE,148,0.0,0.0,78,0.00,,CLR,0.00,0.00,VWS V14.01,2013-08-14 01:10:00,
2013-08-13 20:12:00,72.3,65.1,29.90,SSE,148,0.0,0.0,78,0.00,,CLR,0.00,0.00,VWS V14.01,2013-08-14 01:12:00,
2013-08-13 20:15:00,72.2,65.0,29.90,SSE,148,0.0,0.0,78,0.00,,CLR,0.00,0.00,VWS V14.01,2013-08-14 01:15:00,
2013-08-13 20:17:00,72.2,65.3,29.90,SSE,148,0.0,0.0,79,0.00,,CLR,0.00,0.00,VWS V14.01,2013-08-14 01:17:00,
2013-08-13 20:20:00,72.1,65.2,29.90,SSE,148,0.0,0.0,79,0.00,,CLR,0.00,0.00,VWS V14.01,2013-08-14 01:20:00,
2013-08-13 20:22:00,72.0,65.1,29.90,SSE,148,0.0,1.0,79,0.00,,CLR,0.00,0.00,VWS V14.01,2013-08-14 01:22:00,
2013-08-13 20:25:00,71.9,65.4,29.90,SSE,148,0.0,1.0,80,0.00,,CLR,0.00,0.00,VWS V14.01,2013-08-14 01:25:00,
2013-08-13 20:27:00,71.8,65.3,29.90,SSE,148,0.0,0.0,80,0.00,,CLR,0.00,0.00,VWS V14.01,2013-08-14 01:27:00,
2013-08-13 20:30:00,71.7,65.2,29.91,SSE,148,0.0,0.0,80,0.00,,CLR,0.00,0.00,VWS V14.01,2013-08-14 01:30:00,
2013-08-13 20:32:00,71.6,65.1,29.91,SSE,148,0.0,1.0,80,0.00,,CLR,0.00,0.00,VWS V14.01,2013-08-14 01:32:00,
2013-08-13 20:35:00,71.5,65.0,29.91,SSE,148,0.0,1.0,80,0.00,,CLR,0.00,0.00,VWS V14.01,2013-08-14 01:35:00,
2013-08-13 20:37:00,71.4,64.9,29.91,SSE,148,0.0,0.0,80,0.00,,CLR,0.00,0.00,VWS V14.01,2013-08-14 01:37:00,
2013-08-13 20:40:00,71.3,65.2,29.91,SSE,148,0.0,1.0,81,0.00,,CLR,0.00,0.00,VWS V14.01,2013-08-14 01:40:00,
2013-08-13 20:42:00,71.2,65.1,29.91,SSE,148,0.0,0.0,81,0.00,,CLR,0.00,0.00,VWS V14.01,2013-08-14 01:42:00,
2013-08-13 20:45:00,71.0,64.9,29.91,SSE,148,0.0,0.0,81,0.00,,CLR,0.00,0.00,VWS V14.01,2013-08-14 01:45:00,
2013-08-13 20:47:00,71.0,64.9,29.91,SSE,148,0.0,0.0,81,0.00,,CLR,0.00,0.00,VWS V14.01,2013-08-14 01:47:00,
2013-08-13 20:50:00,70.8,64.7,29.91,SSE,148,0.0,0.0,81,0.00,,CLR,0.00,0.00,VWS V14.01,2013-08-14 01:50:00,
2013-08-13 20:52:00,70.8,65.0,29.91,SSE,148,0.0,0.0,82,0.00,,CLR,0.00,0.00,VWS V14.01,2013-08-14 01:52:00,
2013-08-13 20:55:00,70.6,64.8,29.91,SSE,148,0.0,0.0,82,0.00,,CLR,0.00,0.00,VWS V14.01,2013-08-14 01:55:00,
2013-08-13 20:57:00,70.6,65.2,29.91,SSE,148,0.0,0.0,83,0.00,,CLR,0.00,0.00,VWS V14.01,2013-08-14 01:57:00,
2013-08-13 21:00:00,70.4,65.0,29.92,SSE,148,0.0,0.0,83,0.00,,CLR,0.00,0.00,VWS V14.01,2013-08-14 02:00:00,
2013-08-13 21:03:00,70.3,64.9,29.92,SSE,148,0.0,0.0,83,0.00,,CLR,0.00,0.00,VWS V14.01,2013-08-14 02:03:00,
2013-08-13 21:05:00,70.2,64.8,29.92,SSE,148,0.0,0.0,83,0.00,,CLR,0.00,0.00,VWS V14.01,2013-08-14 02:05:00,
2013-08-13 21:08:00,70.1,64.7,29.92,SSE,148,0.0,0.0,83,0.00,,CLR,0.00,0.00,VWS V14.01,2013-08-14 02:08:00,
2013-08-13 21:10:00,69.9,64.5,29.92,SSE,148,0.0,0.0,83,0.00,,CLR,0.00,0.00,VWS V14.01,2013-08-14 02:10:00,
2013-08-13 21:13:00,69.8,64.4,29.92,SSE,148,0.0,0.0,83,0.00,,CLR,0.00,0.00,VWS V14.01,2013-08-14 02:13:00,
2013-08-13 21:15:00,69.7,64.3,29.92,SSE,148,0.0,0.0,83,0.00,,CLR,0.00,0.00,VWS V14.01,2013-08-14 02:15:00,
2013-08-13 21:18:00,69.6,64.2,29.92,SSE,148,0.0,0.0,83,0.00,,CLR,0.00,0.00,VWS V14.01,2013-08-14 02:18:00,
2013-08-13 21:20:00,69.5,64.1,29.92,SSE,148,0.0,0.0,83,0.00,,CLR,0.00,0.00,VWS V14.01,2013-08-14 02:20:00,
2013-08-13 21:23:00,69.4,64.4,29.92,SSE,148,0.0,0.0,84,0.00,,CLR,0.00,0.00,VWS V14.01,2013-08-14 02:23:00,
2013-08-13 21:25:00,69.3,64.3,29.92,SSE,148,0.0,0.0,84,0.00,,CLR,0.00,0.00,VWS V14.01,2013-08-14 02:25:00,
2013-08-13 21:28:00,69.2,64.5,29.92,SSE,148,0.0,0.0,85,0.00,,CLR,0.00,0.00,VWS V14.01,2013-08-14 02:28:00,
2013-08-13 21:30:00,69.1,64.4,29.93,SSE,148,0.0,0.0,85,0.00,,CLR,0.00,0.00,VWS V14.01,2013-08-14 02:30:00,
2013-08-13 21:33:00,68.9,64.2,29.93,SSE,148,0.0,0.0,85,0.00,,CLR,0.00,0.00,VWS V14.01,2013-08-14 02:33:00,
2013-08-13 21:35:00,68.8,64.1,29.93,SSE,148,0.0,0.0,85,0.00,,CLR,0.00,0.00,VWS V14.01,2013-08-14 02:35:00,
2013-08-13 21:38:00,68.7,64.3,29.93,SSE,148,0.0,0.0,86,0.00,,CLR,0.00,0.00,VWS V14.01,2013-08-14 02:38:00,
2013-08-13 21:40:00,68.6,64.2,29.93,SSE,148,0.0,0.0,86,0.00,,CLR,0.00,0.00,VWS V14.01,2013-08-14 02:40:00,
2013-08-13 21:43:00,68.5,64.2,29.93,SSE,148,0.0,0.0,86,0.00,,CLR,0.00,0.00,VWS V14.01,2013-08-14 02:43:00,
2013-08-13 21:45:00,68.5,64.5,29.94,SSE,148,0.0,0.0,87,0.00,,CLR,0.00,0.00,VWS V14.01,2013-08-14 02:45:00,
2013-08-13 21:48:00,68.4,64.4,29.94,SSE,148,0.0,0.0,87,0.00,,CLR,0.00,0.00,VWS V14.01,2013-08-14 02:48:00,
2013-08-13 21:50:00,68.3,64.3,29.94,SSE,148,0.0,0.0,87,0.00,,CLR,0.00,0.00,VWS V14.01,2013-08-14 02:50:00,
2013-08-13 21:53:00,68.2,64.2,29.94,SSE,148,0.0,0.0,87,0.00,,CLR,0.00,0.00,VWS V14.01,2013-08-14 02:53:00,
2013-08-13 21:55:00,68.1,64.1,29.94,SSE,148,0.0,0.0,87,0.00,,CLR,0.00,0.00,VWS V14.01,2013-08-14 02:55:00,
2013-08-13 21:58:00,68.0,64.0,29.94,SSE,148,0.0,0.0,87,0.00,,CLR,0.00,0.00,VWS V14.01,2013-08-14 02:58:00,
2013-08-13 22:00:00,67.9,63.9,29.95,SSE,148,0.0,0.0,87,0.00,,CLR,0.00,0.00,VWS V14.01,2013-08-14 03:00:00,
2013-08-13 22:03:00,67.9,63.9,29.95,SSE,148,0.0,0.0,87,0.00,,CLR,0.00,0.00,VWS V14.01,2013-08-14 03:03:00,
2013-08-13 22:05:00,67.8,64.1,29.95,SSE,148,0.0,0.0,88,0.00,,CLR,0.00,0.00,VWS V14.01,2013-08-14 03:05:00,
2013-08-13 22:08:00,67.7,64.0,29.95,SSE,148,0.0,0.0,88,0.00,,CLR,0.00,0.00,VWS V14.01,2013-08-14 03:08:00,
2013-08-13 22:10:00,67.6,63.9,29.95,SSE,148,0.0,0.0,88,0.00,,CLR,0.00,0.00,VWS V14.01,2013-08-14 03:10:00,
2013-08-13 22:13:00,67.6,63.9,29.95,SSE,148,0.0,0.0,88,0.00,,CLR,0.00,0.00,VWS V14.01,2013-08-14 03:13:00,
2013-08-13 22:15:00,67.5,63.8,29.95,SSE,148,0.0,0.0,88,0.00,,CLR,0.00,0.00,VWS V14.01,2013-08-14 03:15:00,
2013-08-13 22:18:00,67.4,63.7,29.95,SSE,148,0.0,0.0,88,0.00,,CLR,0.00,0.00,VWS V14.01,2013-08-14 03:18:00,
2013-08-13 22:20:00,67.4,63.7,29.95,SSE,148,0.0,0.0,88,0.00,,CLR,0.00,0.00,VWS V14.01,2013-08-14 03:20:00,
2013-08-13 22:23:00,67.3,63.6,29.95,SSE,148,0.0,0.0,88,0.00,,CLR,0.00,0.00,VWS V14.01,2013-08-14 03:23:00,
2013-08-13 22:25:00,67.2,63.5,29.95,SSE,148,0.0,0.0,88,0.00,,CLR,0.00,0.00,VWS V14.01,2013-08-14 03:25:00,
2013-08-13 22:28:00,67.1,63.4,29.95,SSE,148,0.0,0.0,88,0.00,,CLR,0.00,0.00,VWS V14.01,2013-08-14 03:28:00,
2013-08-13 22:30:00,67.1,63.4,29.95,SSE,148,0.0,0.0,88,0.00,,CLR,0.00,0.00,VWS V14.01,2013-08-14 03:30:00,
2013-08-13 22:33:00,67.0,63.3,29.95,SSE,148,0.0,0.0,88,0.00,,CLR,0.00,0.00,VWS V14.01,2013-08-14 03:33:00,
2013-08-13 22:35:00,66.9,63.6,29.95,SSE,148,0.0,0.0,89,0.00,,CLR,0.00,0.00,VWS V14.01,2013-08-14 03:35:00,
2013-08-13 22:38:00,66.8,63.5,29.95,SSE,148,0.0,0.0,89,0.00,,CLR,0.00,0.00,VWS V14.01,2013-08-14 03:38:00,
2013-08-13 22:40:00,66.7,63.4,29.95,SSE,148,0.0,0.0,89,0.00,,CLR,0.00,0.00,VWS V14.01,2013-08-14 03:40:00,
2013-08-13 22:44:00,66.7,63.4,29.95,SSE,148,0.0,0.0,89,0.00,,CLR,0.00,0.00,VWS V14.01,2013-08-14 03:44:00,
2013-08-13 22:45:00,66.6,63.3,29.95,SSE,148,0.0,0.0,89,0.00,,CLR,0.00,0.00,VWS V14.01,2013-08-14 03:45:00,
2013-08-13 22:49:00,66.5,63.2,29.95,SSE,148,0.0,0.0,89,0.00,,CLR,0.00,0.00,VWS V14.01,2013-08-14 03:49:00,
2013-08-13 22:50:00,66.4,63.4,29.95,SSE,148,0.0,0.0,90,0.00,,CLR,0.00,0.00,VWS V14.01,2013-08-14 03:50:00,
2013-08-13 22:54:00,66.4,63.4,29.95,SSE,148,0.0,0.0,90,0.00,,CLR,0.00,0.00,VWS V14.01,2013-08-14 03:54:00,
2013-08-13 22:55:00,66.3,63.3,29.95,SSE,148,0.0,0.0,90,0.00,,CLR,0.00,0.00,VWS V14.01,2013-08-14 03:55:00,
2013-08-13 22:59:00,66.2,63.2,29.95,SSE,148,0.0,0.0,90,0.00,,CLR,0.00,0.00,VWS V14.01,2013-08-14 03:59:00,
2013-08-13 23:00:00,66.2,63.2,29.95,SSE,148,0.0,0.0,90,0.00,,CLR,0.00,0.00,VWS V14.01,2013-08-14 04:00:00,
2013-08-13 23:01:00,66.2,63.2,29.95,SSE,148,0.0,0.0,90,0.00,,CLR,0.00,0.00,VWS V14.01,2013-08-14 04:01:00,
2013-08-13 23:02:00,66.1,63.1,29.95,SSE,148,0.0,0.0,90,0.00,,CLR,0.00,0.00,VWS V14.01,2013-08-14 04:02:00,
2013-08-13 23:05:00,66.0,63.0,29.95,SSE,148,0.0,0.0,90,0.00,,CLR,0.00,0.00,VWS V14.01,2013-08-14 04:05:00,
2013-08-13 23:09:00,65.9,62.9,29.95,SSE,148,0.0,0.0,90,0.00,,CLR,0.00,0.00,VWS V14.01,2013-08-14 04:09:00,
2013-08-13 23:10:00,65.8,62.8,29.95,SSE,148,0.0,0.0,90,0.00,,CLR,0.00,0.00,VWS V14.01,2013-08-14 04:10:00,
2013-08-13 23:14:00,65.8,63.1,29.95,SSE,148,0.0,0.0,91,0.00,,CLR,0.00,0.00,VWS V14.01,2013-08-14 04:14:00,
2013-08-13 23:15:00,65.7,63.0,29.95,SSE,148,0.0,0.0,91,0.00,,CLR,0.00,0.00,VWS V14.01,2013-08-14 04:15:00,
2013-08-13 23:19:00,65.6,62.9,29.95,SSE,148,0.0,0.0,91,0.00,,CLR,0.00,0.00,VWS V14.01,2013-08-14 04:19:00,
2013-08-13 23:20:00,65.6,62.9,29.95,SSE,148,0.0,0.0,91,0.00,,CLR,0.00,0.00,VWS V14.01,2013-08-14 04:20:00,
2013-08-13 23:24:00,65.5,62.8,29.95,SSE,148,0.0,0.0,91,0.00,,CLR,0.00,0.00,VWS V14.01,2013-08-14 04:24:00,
2013-08-13 23:25:00,65.5,62.8,29.95,SSE,148,0.0,0.0,91,0.00,,CLR,0.00,0.00,VWS V14.01,2013-08-14 04:25:00,
2013-08-13 23:29:00,65.3,62.9,29.95,SSE,148,0.0,0.0,92,0.00,,CLR,0.00,0.00,VWS V14.01,2013-08-14 04:29:00,
2013-08-13 23:30:00,65.3,62.9,29.94,SSE,148,0.0,0.0,92,0.00,,CLR,0.00,0.00,VWS V14.01,2013-08-14 04:30:00,
2013-08-13 23:34:00,65.2,62.8,29.94,SSE,148,0.0,1.0,92,0.00,,CLR,0.00,0.00,VWS V14.01,2013-08-14 04:34:00,
2013-08-13 23:35:00,65.2,63.1,29.94,SSE,148,0.0,1.0,93,0.00,,CLR,0.00,0.00,VWS V14.01,2013-08-14 04:35:00,
2013-08-13 23:39:00,65.1,63.0,29.94,SSE,148,0.0,0.0,93,0.00,,CLR,0.00,0.00,VWS V14.01,2013-08-14 04:39:00,
2013-08-13 23:40:00,65.2,63.1,29.94,SSE,148,0.0,0.0,93,0.00,,CLR,0.00,0.00,VWS V14.01,2013-08-14 04:40:00,
2013-08-13 23:44:00,65.1,63.0,29.94,SSE,148,0.0,0.0,93,0.00,,CLR,0.00,0.00,VWS V14.01,2013-08-14 04:44:00,
2013-08-13 23:45:00,65.1,63.0,29.96,SSE,148,0.0,0.0,93,0.00,,CLR,0.00,0.00,VWS V14.01,2013-08-14 04:45:00,
2013-08-13 23:49:00,65.0,62.9,29.96,SSE,148,0.0,0.0,93,0.00,,CLR,0.00,0.00,VWS V14.01,2013-08-14 04:49:00,
2013-08-13 23:50:00,65.0,62.9,29.96,SSE,148,0.0,0.0,93,0.00,,CLR,0.00,0.00,VWS V14.01,2013-08-14 04:50:00,
2013-08-13 23:54:00,65.0,62.9,29.96,SSE,148,0.0,0.0,93,0.00,,CLR,0.00,0.00,VWS V14.01,2013-08-14 04:54:00,
2013-08-13 23:55:00,64.9,62.8,29.96,SSE,148,0.0,0.0,93,0.00,,CLR,0.00,0.00,VWS V14.01,2013-08-14 04:55:00,
2013-08-13 23:59:00,64.9,62.8,29.96,SSE,148,0.0,0.0,93,0.00,,CLR,0.00,0.00,VWS V14.01,2013-08-14 04:59:00,